| time (UTC) | temp F | wind direction | speed MPH | gust MPH | rain 1hr in | rain 24hr in | rain mn in | humidity % | barometer mb |
| 20260510185504 | 64 | 229 | 4.0 | 9.0 | 0.00 | 0.00 | 0.00 | 41 | 1019.3 |
| 20260510185416 | 64 | 224 | 4.0 | 9.0 | 0.00 | 0.00 | 0.00 | 41 | 1019.2 |
| 20260510185306 | 63 | 225 | 4.0 | 9.0 | 0.00 | 0.00 | 0.00 | 41 | 1019.4 |
| 20260510185104 | 63 | 228 | 5.0 | 11.0 | 0.00 | 0.00 | 0.00 | 41 | 1019.2 |
| 20260510185003 | 63 | 228 | 3.0 | 11.0 | 0.00 | 0.00 | 0.00 | 41 | 1019.2 |
| 20260510184915 | 63 | 239 | 4.0 | 11.0 | 0.00 | 0.00 | 0.00 | 41 | 1019.2 |
| 20260510184820 | 63 | 243 | 6.0 | 11.0 | 0.00 | 0.00 | 0.00 | 41 | 1019.2 |
| 20260510184720 | 63 | 237 | 7.0 | 11.0 | 0.00 | 0.00 | 0.00 | 41 | 1019.5 |
| 20260510184703 | 63 | 236 | 7.0 | 11.0 | 0.00 | 0.00 | 0.00 | 41 | 1019.5 |
| 20260510184404 | 63 | 224 | 7.0 | 11.0 | 0.00 | 0.00 | 0.00 | 41 | 1019.6 |
| 20260510184307 | 64 | 224 | 8.0 | 11.0 | 0.00 | 0.00 | 0.00 | 41 | 1019.5 |
| 20260510184204 | 64 | 249 | 5.0 | 9.0 | 0.00 | 0.00 | 0.00 | 41 | 1019.5 |
| 20260510184117 | 64 | 251 | 3.0 | 6.0 | 0.00 | 0.00 | 0.00 | 42 | 1019.2 |
| 20260510184104 | 64 | 247 | 3.0 | 8.0 | 0.00 | 0.00 | 0.00 | 42 | 1019.3 |
| 20260510184007 | 64 | 248 | 2.0 | 8.0 | 0.00 | 0.00 | 0.00 | 42 | 1019.4 |
| 20260510183804 | 64 | 243 | 2.0 | 11.0 | 0.00 | 0.00 | 0.00 | 42 | 1019.4 |
| 20260510183704 | 63 | 239 | 3.0 | 11.0 | 0.00 | 0.00 | 0.00 | 43 | 1019.4 |
| 20260510183604 | 63 | 241 | 5.0 | 11.0 | 0.00 | 0.00 | 0.00 | 43 | 1019.5 |
| 20260510183203 | 63 | 240 | 4.0 | 11.0 | 0.00 | 0.00 | 0.00 | 43 | 1019.4 |
| 20260510182904 | 62 | 246 | 6.0 | 13.0 | 0.00 | 0.00 | 0.00 | 43 | 1019.2 |
| 20260510182818 | 62 | 253 | 6.0 | 13.0 | 0.00 | 0.00 | 0.00 | 42 | 1019.4 |
| 20260510182803 | 62 | 251 | 6.0 | 13.0 | 0.00 | 0.00 | 0.00 | 42 | 1019.4 |
| 20260510182704 | 63 | 250 | 6.0 | 13.0 | 0.00 | 0.00 | 0.00 | 42 | 1019.5 |
| 20260510182404 | 63 | 253 | 8.0 | 13.0 | 0.00 | 0.00 | 0.00 | 43 | 1019.5 |
| 20260510182306 | 63 | 253 | 4.0 | 11.0 | 0.00 | 0.00 | 0.00 | 42 | 1019.4 |
| 20260510182203 | 63 | 253 | 5.0 | 11.0 | 0.00 | 0.00 | 0.00 | 43 | 1019.6 |
| 20260510182103 | 63 | 256 | 7.0 | 11.0 | 0.00 | 0.00 | 0.00 | 44 | 1019.6 |
| 20260510182017 | 63 | 251 | 7.0 | 9.0 | 0.00 | 0.00 | 0.00 | 44 | 1019.4 |
| 20260510182005 | 63 | 247 | 7.0 | 9.0 | 0.00 | 0.00 | 0.00 | 44 | 1019.4 |
| 20260510181907 | 63 | 241 | 6.0 | 9.0 | 0.00 | 0.00 | 0.00 | 44 | 1019.4 |
| 20260510181814 | 63 | 247 | 4.0 | 9.0 | 0.00 | 0.00 | 0.00 | 44 | 1019.6 |
| 20260510181703 | 63 | 253 | 7.0 | 9.0 | 0.00 | 0.00 | 0.00 | 44 | 1019.6 |
| 20260510181617 | 63 | 252 | 3.0 | 8.0 | 0.00 | 0.00 | 0.00 | 44 | 1019.7 |
| 20260510181504 | 63 | 262 | 3.0 | 8.0 | 0.00 | 0.00 | 0.00 | 44 | 1019.7 |
| 20260510181303 | 63 | 268 | 3.0 | 8.0 | 0.00 | 0.00 | 0.00 | 44 | 1019.6 |
| 20260510181205 | 63 | 264 | 4.0 | 8.0 | 0.00 | 0.00 | 0.00 | 44 | 1019.7 |
| 20260510181105 | 63 | 257 | 3.0 | 7.0 | 0.00 | 0.00 | 0.00 | 44 | 1019.7 |
| 20260510181007 | 63 | 251 | 3.0 | 7.0 | 0.00 | 0.00 | 0.00 | 44 | 1019.4 |
| 20260510180903 | 64 | 246 | 2.0 | 7.0 | 0.00 | 0.00 | 0.00 | 44 | 1019.3 |
| 20260510180815 | 63 | 246 | 4.0 | 7.0 | 0.00 | 0.00 | 0.00 | 44 | 1019.5 |
| 20260510180805 | 63 | 248 | 4.0 | 7.0 | 0.00 | 0.00 | 0.00 | 44 | 1019.5 |
| 20260510180703 | 63 | 253 | 4.0 | 8.0 | 0.00 | 0.00 | 0.00 | 44 | 1019.6 |
| 20260510180612 | 63 | 267 | 4.0 | 11.0 | 0.00 | 0.00 | 0.00 | 45 | 1019.5 |
| 20260510180503 | 62 | 267 | 5.0 | 11.0 | 0.00 | 0.00 | 0.00 | 44 | 1019.5 |
| 20260510180415 | 62 | 265 | 3.0 | 11.0 | 0.00 | 0.00 | 0.00 | 44 | 1019.4 |
| 20260510180303 | 62 | 268 | 4.0 | 11.0 | 0.00 | 0.00 | 0.00 | 45 | 1019.7 |
| 20260510180104 | 62 | 263 | 5.0 | 11.0 | 0.00 | 0.00 | 0.00 | 45 | 1019.8 |
| 20260510180004 | 62 | 261 | 6.0 | 11.0 | 0.00 | 0.00 | 0.00 | 45 | 1019.6 |
| 20260510175905 | 62 | 255 | 6.0 | 11.0 | 0.00 | 0.00 | 0.00 | 45 | 1019.7 |
| 20260510175804 | 62 | 247 | 7.0 | 11.0 | 0.00 | 0.00 | 0.00 | 45 | 1019.7 |
| 20260510175704 | 62 | 229 | 6.0 | 11.0 | 0.00 | 0.00 | 0.00 | 44 | 1019.8 |
| 20260510175606 | 62 | 226 | 3.0 | 11.0 | 0.00 | 0.00 | 0.00 | 45 | 1019.6 |
| 20260510175505 | 62 | 228 | 5.0 | 11.0 | 0.00 | 0.00 | 0.00 | 45 | 1019.7 |
| 20260510175403 | 62 | 238 | 4.0 | 11.0 | 0.00 | 0.00 | 0.00 | 44 | 1019.6 |
| 20260510175306 | 62 | 242 | 4.0 | 11.0 | 0.00 | 0.00 | 0.00 | 44 | 1019.6 |
| 20260510175205 | 62 | 249 | 2.0 | 11.0 | 0.00 | 0.00 | 0.00 | 44 | 1019.5 |
| 20260510175104 | 62 | 239 | 5.0 | 11.0 | 0.00 | 0.00 | 0.00 | 44 | 1019.6 |
| 20260510175005 | 62 | 245 | 6.0 | 9.0 | 0.00 | 0.00 | 0.00 | 43 | 1019.6 |
| 20260510174904 | 64 | 244 | 2.0 | 7.0 | 0.00 | 0.00 | 0.00 | 43 | 1019.6 |
| 20260510174804 | 63 | 244 | 2.0 | 9.0 | 0.00 | 0.00 | 0.00 | 44 | 1019.6 |
| 20260510174704 | 63 | 243 | 2.0 | 9.0 | 0.00 | 0.00 | 0.00 | 44 | 1019.8 |
| 20260510174604 | 62 | 246 | 4.0 | 11.0 | 0.00 | 0.00 | 0.00 | 43 | 1019.7 |
| 20260510174503 | 63 | 243 | 4.0 | 11.0 | 0.00 | 0.00 | 0.00 | 43 | 1019.5 |
| 20260510174416 | 63 | 242 | 2.0 | 11.0 | 0.00 | 0.00 | 0.00 | 44 | 1019.8 |
| 20260510174404 | 63 | 239 | 2.0 | 11.0 | 0.00 | 0.00 | 0.00 | 44 | 1019.8 |
| 20260510174315 | 62 | 235 | 4.0 | 11.0 | 0.00 | 0.00 | 0.00 | 45 | 1019.8 |
| 20260510174004 | 62 | 233 | 4.0 | 9.0 | 0.00 | 0.00 | 0.00 | 44 | 1019.7 |
| 20260510173904 | 62 | 244 | 4.0 | 9.0 | 0.00 | 0.00 | 0.00 | 44 | 1019.7 |
| 20260510173818 | 62 | 249 | 4.0 | 9.0 | 0.00 | 0.00 | 0.00 | 44 | 1020.0 |
| 20260510173803 | 62 | 250 | 4.0 | 11.0 | 0.00 | 0.00 | 0.00 | 43 | 1019.7 |
| 20260510173717 | 62 | 252 | 4.0 | 11.0 | 0.00 | 0.00 | 0.00 | 43 | 1019.7 |
| 20260510173704 | 62 | 254 | 2.0 | 11.0 | 0.00 | 0.00 | 0.00 | 43 | 1020.3 |
| 20260510173403 | 61 | 244 | 4.0 | 11.0 | 0.00 | 0.00 | 0.00 | 44 | 1019.9 |
| 20260510173303 | 61 | 246 | 7.0 | 11.0 | 0.00 | 0.00 | 0.00 | 45 | 1020.0 |
| 20260510173207 | 61 | 239 | 4.0 | 11.0 | 0.00 | 0.00 | 0.00 | 45 | 1019.8 |
| 20260510173105 | 61 | 237 | 6.0 | 13.0 | 0.00 | 0.00 | 0.00 | 44 | 1019.9 |
| 20260510173005 | 61 | 238 | 4.0 | 14.0 | 0.00 | 0.00 | 0.00 | 44 | 1020.1 |
| 20260510172804 | 61 | 238 | 4.0 | 14.0 | 0.00 | 0.00 | 0.00 | 44 | 1019.8 |
| 20260510172703 | 61 | 244 | 6.0 | 14.0 | 0.00 | 0.00 | 0.00 | 43 | 1020.0 |
| 20260510172603 | 62 | 256 | 8.0 | 14.0 | 0.00 | 0.00 | 0.00 | 43 | 1019.8 |
| 20260510172506 | 62 | 264 | 4.0 | 8.0 | 0.00 | 0.00 | 0.00 | 45 | 1019.8 |
| 20260510172403 | 62 | 269 | 4.0 | 8.0 | 0.00 | 0.00 | 0.00 | 45 | 1020.1 |
| 20260510172317 | 61 | 261 | 4.0 | 11.0 | 0.00 | 0.00 | 0.00 | 44 | 1019.9 |
| 20260510172306 | 61 | 256 | 4.0 | 11.0 | 0.00 | 0.00 | 0.00 | 44 | 1019.9 |
| 20260510172206 | 62 | 256 | 4.0 | 11.0 | 0.00 | 0.00 | 0.00 | 44 | 1020.0 |
| 20260510172004 | 61 | 247 | 4.0 | 13.0 | 0.00 | 0.00 | 0.00 | 45 | 1019.9 |
| 20260510171903 | 61 | 247 | 4.0 | 13.0 | 0.00 | 0.00 | 0.00 | 44 | 1019.8 |
| 20260510171803 | 60 | 249 | 8.0 | 13.0 | 0.00 | 0.00 | 0.00 | 44 | 1020.0 |
| 20260510171703 | 61 | 249 | 8.0 | 13.0 | 0.00 | 0.00 | 0.00 | 44 | 1020.0 |
| 20260510171608 | 61 | 257 | 8.0 | 13.0 | 0.00 | 0.00 | 0.00 | 44 | 1020.0 |
| 20260510171505 | 62 | 257 | 5.0 | 13.0 | 0.00 | 0.00 | 0.00 | 44 | 1019.9 |
| 20260510171307 | 61 | 269 | 7.0 | 13.0 | 0.00 | 0.00 | 0.00 | 45 | 1020.0 |
| 20260510171204 | 61 | 286 | 6.0 | 13.0 | 0.00 | 0.00 | 0.00 | 45 | 1019.9 |
| 20260510171115 | 61 | 289 | 6.0 | 13.0 | 0.00 | 0.00 | 0.00 | 45 | 1019.8 |
| 20260510171104 | 61 | 286 | 6.0 | 13.0 | 0.00 | 0.00 | 0.00 | 45 | 1019.8 |
| 20260510171004 | 61 | 282 | 5.0 | 13.0 | 0.00 | 0.00 | 0.00 | 45 | 1019.9 |
| 20260510170917 | 61 | 287 | 8.0 | 13.0 | 0.00 | 0.00 | 0.00 | 45 | 1020.0 |
| 20260510170807 | 61 | 270 | 5.0 | 11.0 | 0.00 | 0.00 | 0.00 | 44 | 1020.0 |
| 20260510170604 | 61 | 240 | 4.0 | 9.0 | 0.00 | 0.00 | 0.00 | 45 | 1020.1 |
| 20260510170517 | 61 | 244 | 4.0 | 9.0 | 0.00 | 0.00 | 0.00 | 45 | 1020.2 |
| 20260510170504 | 61 | 245 | 4.0 | 9.0 | 0.00 | 0.00 | 0.00 | 46 | 1020.1 |
| 20260510170405 | 61 | 246 | 5.0 | 9.0 | 0.00 | 0.00 | 0.00 | 45 | 1020.1 |
| 20260510170205 | 61 | 242 | 5.0 | 9.0 | 0.00 | 0.00 | 0.00 | 45 | 1020.1 |
| 20260510170104 | 61 | 254 | 5.0 | 8.0 | 0.00 | 0.00 | 0.00 | 46 | 1019.8 |
| 20260510170004 | 61 | 249 | 4.0 | 8.0 | 0.00 | 0.00 | 0.00 | 47 | 1019.8 |
| 20260510165904 | 61 | 247 | 5.0 | 9.0 | 0.00 | 0.00 | 0.00 | 46 | 1020.1 |
| 20260510165805 | 61 | 251 | 3.0 | 9.0 | 0.00 | 0.00 | 0.00 | 47 | 1020.1 |
| 20260510165704 | 61 | 255 | 4.0 | 9.0 | 0.00 | 0.00 | 0.00 | 47 | 1020.3 |
| 20260510165505 | 61 | 261 | 4.0 | 9.0 | 0.00 | 0.00 | 0.00 | 47 | 1020.4 |
| 20260510165404 | 60 | 263 | 5.0 | 9.0 | 0.00 | 0.00 | 0.00 | 47 | 1020.2 |
| 20260510165204 | 60 | 245 | 5.0 | 8.0 | 0.00 | 0.00 | 0.00 | 47 | 1020.2 |
| 20260510165104 | 60 | 244 | 3.0 | 11.0 | 0.00 | 0.00 | 0.00 | 46 | 1020.2 |
| 20260510165003 | 60 | 250 | 5.0 | 11.0 | 0.00 | 0.00 | 0.00 | 46 | 1020.2 |
| 20260510164906 | 60 | 249 | 5.0 | 13.0 | 0.00 | 0.00 | 0.00 | 45 | 1020.7 |
| 20260510164807 | 60 | 266 | 4.0 | 13.0 | 0.00 | 0.00 | 0.00 | 46 | 1020.5 |
| 20260510164603 | 61 | 285 | 6.0 | 13.0 | 0.00 | 0.00 | 0.00 | 48 | 1020.3 |
| 20260510164504 | 61 | 284 | 4.0 | 13.0 | 0.00 | 0.00 | 0.00 | 48 | 1020.3 |
| 20260510164403 | 60 | 280 | 6.0 | 13.0 | 0.00 | 0.00 | 0.00 | 48 | 1020.4 |
| 20260510164305 | 60 | 270 | 4.0 | 11.0 | 0.00 | 0.00 | 0.00 | 48 | 1020.3 |
| 20260510164204 | 60 | 266 | 5.0 | 11.0 | 0.00 | 0.00 | 0.00 | 49 | 1020.4 |
| 20260510164103 | 60 | 260 | 4.0 | 8.0 | 0.00 | 0.00 | 0.00 | 49 | 1020.5 |
| 20260510164007 | 60 | 267 | 4.0 | 11.0 | 0.00 | 0.00 | 0.00 | 49 | 1020.7 |
| 20260510163903 | 60 | 272 | 5.0 | 14.0 | 0.00 | 0.00 | 0.00 | 49 | 1020.6 |
| 20260510163805 | 60 | 269 | 4.0 | 14.0 | 0.00 | 0.00 | 0.00 | 50 | 1020.8 |
| 20260510163704 | 59 | 264 | 5.0 | 14.0 | 0.00 | 0.00 | 0.00 | 49 | 1020.5 |
| 20260510163605 | 60 | 267 | 4.0 | 14.0 | 0.00 | 0.00 | 0.00 | 49 | 1020.5 |
| 20260510163503 | 60 | 262 | 6.0 | 14.0 | 0.00 | 0.00 | 0.00 | 50 | 1020.6 |
| 20260510163403 | 59 | 258 | 6.0 | 9.0 | 0.00 | 0.00 | 0.00 | 51 | 1020.8 |
| 20260510163303 | 59 | 263 | 5.0 | 9.0 | 0.00 | 0.00 | 0.00 | 50 | 1020.6 |
| 20260510163204 | 60 | 265 | 5.0 | 9.0 | 0.00 | 0.00 | 0.00 | 49 | 1020.7 |
| 20260510163103 | 60 | 262 | 4.0 | 9.0 | 0.00 | 0.00 | 0.00 | 49 | 1021.0 |
| 20260510163006 | 60 | 260 | 4.0 | 9.0 | 0.00 | 0.00 | 0.00 | 49 | 1020.8 |
| 20260510162815 | 60 | 262 | 3.0 | 9.0 | 0.00 | 0.00 | 0.00 | 50 | 1020.6 |
| 20260510162803 | 60 | 261 | 3.0 | 9.0 | 0.00 | 0.00 | 0.00 | 50 | 1020.6 |
| 20260510162707 | 60 | 268 | 3.0 | 9.0 | 0.00 | 0.00 | 0.00 | 51 | 1020.7 |
| 20260510162508 | 60 | 272 | 4.0 | 11.0 | 0.00 | 0.00 | 0.00 | 50 | 1020.8 |
| 20260510162414 | 60 | 268 | 4.0 | 11.0 | 0.00 | 0.00 | 0.00 | 50 | 1020.9 |
| 20260510162403 | 60 | 267 | 4.0 | 11.0 | 0.00 | 0.00 | 0.00 | 50 | 1020.9 |
| 20260510162306 | 60 | 262 | 4.0 | 11.0 | 0.00 | 0.00 | 0.00 | 50 | 1021.1 |
| 20260510162103 | 59 | 258 | 6.0 | 13.0 | 0.00 | 0.00 | 0.00 | 51 | 1021.1 |
| 20260510162003 | 59 | 270 | 7.0 | 13.0 | 0.00 | 0.00 | 0.00 | 52 | 1021.1 |
| 20260510161905 | 59 | 277 | 5.0 | 13.0 | 0.00 | 0.00 | 0.00 | 51 | 1021.0 |
| 20260510161804 | 59 | 277 | 5.0 | 13.0 | 0.00 | 0.00 | 0.00 | 51 | 1020.9 |
| 20260510161704 | 59 | 286 | 4.0 | 13.0 | 0.00 | 0.00 | 0.00 | 51 | 1021.1 |
| 20260510161503 | 59 | 289 | 5.0 | 11.0 | 0.00 | 0.00 | 0.00 | 51 | 1021.0 |
| 20260510161405 | 59 | 291 | 4.0 | 11.0 | 0.00 | 0.00 | 0.00 | 51 | 1021.1 |
| 20260510161306 | 59 | 304 | 5.0 | 11.0 | 0.00 | 0.00 | 0.00 | 51 | 1021.2 |
| 20260510161204 | 59 | 295 | 6.0 | 11.0 | 0.00 | 0.00 | 0.00 | 51 | 1021.2 |
| 20260510161116 | 59 | 298 | 4.0 | 11.0 | 0.00 | 0.00 | 0.00 | 52 | 1021.3 |
| 20260510161104 | 59 | 296 | 4.0 | 11.0 | 0.00 | 0.00 | 0.00 | 52 | 1021.3 |
| 20260510161019 | 59 | 293 | 7.0 | 11.0 | 0.00 | 0.00 | 0.00 | 51 | 1021.2 |
| 20260510161004 | 59 | 291 | 7.0 | 11.0 | 0.00 | 0.00 | 0.00 | 51 | 1021.2 |
| 20260510160705 | 59 | 253 | 2.0 | 11.0 | 0.00 | 0.00 | 0.00 | 52 | 1021.1 |
| 20260510160604 | 58 | 261 | 5.0 | 11.0 | 0.00 | 0.00 | 0.00 | 53 | 1021.2 |
| 20260510160504 | 59 | 265 | 5.0 | 11.0 | 0.00 | 0.00 | 0.00 | 52 | 1021.1 |
| 20260510160404 | 58 | 251 | 6.0 | 11.0 | 0.00 | 0.00 | 0.00 | 51 | 1021.3 |
| 20260510160314 | 58 | 271 | 6.0 | 11.0 | 0.00 | 0.00 | 0.00 | 51 | 1021.2 |
| 20260510160305 | 58 | 279 | 6.0 | 11.0 | 0.00 | 0.00 | 0.00 | 51 | 1021.2 |
| 20260510160205 | 58 | 300 | 5.0 | 11.0 | 0.00 | 0.00 | 0.00 | 52 | 1021.4 |
| 20260510160004 | 59 | 274 | 4.0 | 11.0 | 0.00 | 0.00 | 0.00 | 53 | 1021.4 |
| 20260510155905 | 58 | 279 | 4.0 | 11.0 | 0.00 | 0.00 | 0.00 | 54 | 1021.4 |
| 20260510155818 | 58 | 265 | 5.0 | 11.0 | 0.00 | 0.00 | 0.00 | 53 | 1021.4 |
| 20260510155803 | 58 | 259 | 5.0 | 11.0 | 0.00 | 0.00 | 0.00 | 53 | 1021.4 |
| 20260510155703 | 58 | 244 | 4.0 | 11.0 | 0.00 | 0.00 | 0.00 | 54 | 1021.4 |
| 20260510155505 | 58 | 239 | 7.0 | 11.0 | 0.00 | 0.00 | 0.00 | 53 | 1021.5 |
| 20260510155405 | 58 | 244 | 3.0 | 13.0 | 0.00 | 0.00 | 0.00 | 54 | 1021.4 |
| 20260510155305 | 58 | 260 | 6.0 | 13.0 | 0.00 | 0.00 | 0.00 | 53 | 1021.3 |
| 20260510155214 | 58 | 268 | 6.0 | 13.0 | 0.00 | 0.00 | 0.00 | 53 | 1021.2 |
| 20260510155205 | 58 | 273 | 6.0 | 13.0 | 0.00 | 0.00 | 0.00 | 53 | 1021.2 |
| 20260510155118 | 58 | 282 | 5.0 | 13.0 | 0.00 | 0.00 | 0.00 | 52 | 1021.5 |
| 20260510155104 | 58 | 284 | 5.0 | 13.0 | 0.00 | 0.00 | 0.00 | 52 | 1021.5 |
| 20260510154813 | 59 | 282 | 2.0 | 8.0 | 0.00 | 0.00 | 0.00 | 54 | 1021.5 |
| 20260510154804 | 59 | 290 | 2.0 | 8.0 | 0.00 | 0.00 | 0.00 | 54 | 1021.5 |
| 20260510154717 | 59 | 299 | 4.0 | 8.0 | 0.00 | 0.00 | 0.00 | 54 | 1021.6 |
| 20260510154704 | 59 | 297 | 4.0 | 8.0 | 0.00 | 0.00 | 0.00 | 54 | 1021.6 |
| 20260510154403 | 58 | 301 | 2.0 | 11.0 | 0.00 | 0.00 | 0.00 | 54 | 1021.5 |
| 20260510154304 | 58 | 286 | 4.0 | 11.0 | 0.00 | 0.00 | 0.00 | 55 | 1021.6 |
| 20260510154204 | 57 | 281 | 4.0 | 11.0 | 0.00 | 0.00 | 0.00 | 56 | 1021.6 |
| 20260510154103 | 58 | 284 | 5.0 | 11.0 | 0.00 | 0.00 | 0.00 | 55 | 1021.6 |
| 20260510154017 | 58 | 289 | 4.0 | 9.0 | 0.00 | 0.00 | 0.00 | 55 | 1021.6 |
| 20260510154003 | 58 | 293 | 4.0 | 9.0 | 0.00 | 0.00 | 0.00 | 55 | 1021.6 |
| 20260510153903 | 58 | 314 | 4.0 | 9.0 | 0.00 | 0.00 | 0.00 | 55 | 1021.8 |
| 20260510153814 | 58 | 323 | 4.0 | 9.0 | 0.00 | 0.00 | 0.00 | 55 | 1021.9 |
| 20260510153705 | 58 | 320 | 4.0 | 11.0 | 0.00 | 0.00 | 0.00 | 55 | 1021.6 |
| 20260510153503 | 58 | 290 | 3.0 | 11.0 | 0.00 | 0.00 | 0.00 | 56 | 1022.0 |
| 20260510153405 | 57 | 284 | 4.0 | 11.0 | 0.00 | 0.00 | 0.00 | 57 | 1021.8 |
| 20260510153303 | 57 | 268 | 6.0 | 11.0 | 0.00 | 0.00 | 0.00 | 55 | 1021.8 |
| 20260510153204 | 57 | 254 | 4.0 | 11.0 | 0.00 | 0.00 | 0.00 | 55 | 1021.7 |
| 20260510153104 | 57 | 254 | 3.0 | 11.0 | 0.00 | 0.00 | 0.00 | 55 | 1021.6 |
| 20260510153004 | 57 | 260 | 4.0 | 11.0 | 0.00 | 0.00 | 0.00 | 56 | 1021.7 |
| 20260510152903 | 57 | 261 | 4.0 | 9.0 | 0.00 | 0.00 | 0.00 | 56 | 1021.9 |
| 20260510152805 | 57 | 275 | 4.0 | 9.0 | 0.00 | 0.00 | 0.00 | 57 | 1021.8 |
| 20260510152705 | 57 | 286 | 4.0 | 9.0 | 0.00 | 0.00 | 0.00 | 57 | 1021.9 |
| 20260510152603 | 56 | 307 | 4.0 | 11.0 | 0.00 | 0.00 | 0.00 | 58 | 1021.8 |
| 20260510152503 | 56 | 309 | 5.0 | 11.0 | 0.00 | 0.00 | 0.00 | 57 | 1021.8 |
| 20260510152405 | 56 | 309 | 4.0 | 11.0 | 0.00 | 0.00 | 0.00 | 57 | 1021.9 |
| 20260510152307 | 56 | 304 | 7.0 | 11.0 | 0.00 | 0.00 | 0.00 | 57 | 1022.0 |
| 20260510152222 | 56 | 300 | 4.0 | 11.0 | 0.00 | 0.00 | 0.00 | 57 | 1021.7 |
| 20260510152205 | 56 | 301 | 4.0 | 11.0 | 0.00 | 0.00 | 0.00 | 57 | 1021.7 |
| 20260510152105 | 56 | 282 | 6.0 | 11.0 | 0.00 | 0.00 | 0.00 | 57 | 1021.9 |
| 20260510151904 | 56 | 262 | 5.0 | 11.0 | 0.00 | 0.00 | 0.00 | 58 | 1022.1 |
| 20260510151804 | 56 | 260 | 3.0 | 8.0 | 0.00 | 0.00 | 0.00 | 58 | 1021.9 |
| 20260510151704 | 56 | 272 | 4.0 | 11.0 | 0.00 | 0.00 | 0.00 | 58 | 1021.9 |
| 20260510151613 | 56 | 277 | 4.0 | 11.0 | 0.00 | 0.00 | 0.00 | 58 | 1021.8 |
| 20260510151604 | 56 | 283 | 4.0 | 11.0 | 0.00 | 0.00 | 0.00 | 58 | 1021.8 |
| 20260510151505 | 56 | 285 | 4.0 | 11.0 | 0.00 | 0.00 | 0.00 | 58 | 1022.3 |
| 20260510151319 | 56 | 281 | 4.0 | 11.0 | 0.00 | 0.00 | 0.00 | 58 | 1022.2 |
| 20260510151304 | 55 | 279 | 7.0 | 11.0 | 0.00 | 0.00 | 0.00 | 58 | 1022.0 |
| 20260510151203 | 56 | 261 | 6.0 | 11.0 | 0.00 | 0.00 | 0.00 | 57 | 1022.0 |
| 20260510151006 | 56 | 249 | 5.0 | 9.0 | 0.00 | 0.00 | 0.00 | 58 | 1022.2 |
| 20260510150905 | 56 | 253 | 4.0 | 11.0 | 0.00 | 0.00 | 0.00 | 58 | 1022.2 |
| 20260510150804 | 56 | 271 | 5.0 | 11.0 | 0.00 | 0.00 | 0.00 | 58 | 1022.1 |
| 20260510150705 | 56 | 276 | 5.0 | 11.0 | 0.00 | 0.00 | 0.00 | 58 | 1022.2 |
| 20260510150604 | 56 | 275 | 3.0 | 11.0 | 0.00 | 0.00 | 0.00 | 58 | 1022.5 |
| 20260510150505 | 56 | 282 | 3.0 | 11.0 | 0.00 | 0.00 | 0.00 | 59 | 1022.3 |
| 20260510150403 | 55 | 278 | 6.0 | 11.0 | 0.00 | 0.00 | 0.00 | 58 | 1022.3 |
| 20260510150304 | 55 | 280 | 6.0 | 11.0 | 0.00 | 0.00 | 0.00 | 59 | 1022.1 |
| 20260510150204 | 56 | 295 | 5.0 | 11.0 | 0.00 | 0.00 | 0.00 | 60 | 1022.4 |
| 20260510150105 | 55 | 303 | 4.0 | 11.0 | 0.00 | 0.00 | 0.00 | 60 | 1022.2 |
| 20260510150004 | 55 | 293 | 5.0 | 11.0 | 0.00 | 0.00 | 0.00 | 60 | 1022.4 |
| 20260510145905 | 55 | 286 | 6.0 | 11.0 | 0.00 | 0.00 | 0.00 | 60 | 1022.5 |
| 20260510145805 | 55 | 276 | 5.0 | 11.0 | 0.00 | 0.00 | 0.00 | 61 | 1022.4 |
| 20260510145704 | 55 | 257 | 4.0 | 11.0 | 0.00 | 0.00 | 0.00 | 62 | 1022.4 |
| 20260510145609 | 54 | 252 | 6.0 | 11.0 | 0.00 | 0.00 | 0.00 | 61 | 1022.2 |
| 20260510145505 | 55 | 263 | 5.0 | 11.0 | 0.00 | 0.00 | 0.00 | 61 | 1022.4 |
| 20260510145404 | 55 | 268 | 7.0 | 11.0 | 0.00 | 0.00 | 0.00 | 61 | 1022.4 |
| 20260510145306 | 56 | 279 | 4.0 | 9.0 | 0.00 | 0.00 | 0.00 | 60 | 1022.3 |
| 20260510145203 | 56 | 282 | 3.0 | 9.0 | 0.00 | 0.00 | 0.00 | 61 | 1022.5 |
| 20260510145113 | 55 | 286 | 4.0 | 11.0 | 0.00 | 0.00 | 0.00 | 61 | 1022.4 |
| 20260510145105 | 55 | 289 | 4.0 | 11.0 | 0.00 | 0.00 | 0.00 | 61 | 1022.4 |
| 20260510145004 | 55 | 290 | 5.0 | 11.0 | 0.00 | 0.00 | 0.00 | 61 | 1022.4 |
| 20260510144803 | 55 | 286 | 3.0 | 11.0 | 0.00 | 0.00 | 0.00 | 62 | 1022.4 |
| 20260510144707 | 55 | 287 | 4.0 | 11.0 | 0.00 | 0.00 | 0.00 | 62 | 1022.4 |
| 20260510144603 | 54 | 279 | 5.0 | 11.0 | 0.00 | 0.00 | 0.00 | 61 | 1022.4 |
| 20260510144504 | 54 | 275 | 6.0 | 11.0 | 0.00 | 0.00 | 0.00 | 61 | 1022.5 |
| 20260510144404 | 55 | 275 | 3.0 | 11.0 | 0.00 | 0.00 | 0.00 | 62 | 1022.4 |
| 20260510144303 | 54 | 265 | 4.0 | 11.0 | 0.00 | 0.00 | 0.00 | 62 | 1022.5 |
| 20260510144205 | 54 | 264 | 5.0 | 11.0 | 0.00 | 0.00 | 0.00 | 63 | 1022.5 |
| 20260510144103 | 54 | 262 | 7.0 | 11.0 | 0.00 | 0.00 | 0.00 | 63 | 1022.5 |
| 20260510144005 | 54 | 252 | 6.0 | 11.0 | 0.00 | 0.00 | 0.00 | 62 | 1022.4 |
| 20260510143916 | 54 | 251 | 4.0 | 11.0 | 0.00 | 0.00 | 0.00 | 62 | 1022.5 |
| 20260510143905 | 54 | 254 | 4.0 | 11.0 | 0.00 | 0.00 | 0.00 | 62 | 1022.5 |
| 20260510143803 | 54 | 259 | 5.0 | 14.0 | 0.00 | 0.00 | 0.00 | 62 | 1022.6 |
| 20260510143719 | 54 | 259 | 5.0 | 14.0 | 0.00 | 0.00 | 0.00 | 62 | 1022.6 |
| 20260510143603 | 54 | 260 | 4.0 | 14.0 | 0.00 | 0.00 | 0.00 | 64 | 1022.7 |
| 20260510143516 | 54 | 267 | 3.0 | 14.0 | 0.00 | 0.00 | 0.00 | 64 | 1022.9 |
| 20260510143403 | 53 | 273 | 9.0 | 14.0 | 0.00 | 0.00 | 0.00 | 63 | 1022.6 |
| 20260510143204 | 53 | 281 | 7.0 | 11.0 | 0.00 | 0.00 | 0.00 | 64 | 1022.5 |
| 20260510143103 | 53 | 279 | 5.0 | 11.0 | 0.00 | 0.00 | 0.00 | 63 | 1022.5 |
| 20260510143004 | 54 | 272 | 4.0 | 11.0 | 0.00 | 0.00 | 0.00 | 63 | 1022.7 |
| 20260510142903 | 53 | 262 | 4.0 | 11.0 | 0.00 | 0.00 | 0.00 | 63 | 1022.6 |
| 20260510142804 | 53 | 256 | 7.0 | 13.0 | 0.00 | 0.00 | 0.00 | 63 | 1022.5 |
| 20260510142704 | 53 | 262 | 5.0 | 13.0 | 0.00 | 0.00 | 0.00 | 63 | 1022.3 |
| 20260510142604 | 53 | 265 | 4.0 | 13.0 | 0.00 | 0.00 | 0.00 | 63 | 1022.4 |
| 20260510142506 | 53 | 264 | 5.0 | 13.0 | 0.00 | 0.00 | 0.00 | 63 | 1022.6 |
| 20260510142416 | 53 | 262 | 8.0 | 13.0 | 0.00 | 0.00 | 0.00 | 63 | 1022.6 |
| 20260510142404 | 53 | 264 | 8.0 | 13.0 | 0.00 | 0.00 | 0.00 | 63 | 1022.6 |
| 20260510142314 | 53 | 274 | 8.0 | 13.0 | 0.00 | 0.00 | 0.00 | 63 | 1022.6 |
| 20260510142306 | 53 | 279 | 8.0 | 13.0 | 0.00 | 0.00 | 0.00 | 63 | 1022.6 |
| 20260510142004 | 53 | 269 | 4.0 | 11.0 | 0.00 | 0.00 | 0.00 | 65 | 1022.6 |
| 20260510141913 | 53 | 264 | 4.0 | 11.0 | 0.00 | 0.00 | 0.00 | 65 | 1022.6 |
| 20260510141906 | 53 | 260 | 4.0 | 11.0 | 0.00 | 0.00 | 0.00 | 65 | 1022.6 |
| 20260510141806 | 53 | 262 | 5.0 | 11.0 | 0.00 | 0.00 | 0.00 | 65 | 1022.7 |
| 20260510141603 | 53 | 270 | 5.0 | 11.0 | 0.00 | 0.00 | 0.00 | 65 | 1022.7 |
| 20260510141505 | 53 | 266 | 4.0 | 9.0 | 0.00 | 0.00 | 0.00 | 65 | 1022.7 |
| 20260510141404 | 53 | 282 | 4.0 | 9.0 | 0.00 | 0.00 | 0.00 | 66 | 1022.6 |
| 20260510141305 | 52 | 283 | 4.0 | 11.0 | 0.00 | 0.00 | 0.00 | 66 | 1022.8 |
| 20260510141204 | 52 | 272 | 6.0 | 11.0 | 0.00 | 0.00 | 0.00 | 65 | 1022.8 |
| 20260510141103 | 52 | 271 | 5.0 | 11.0 | 0.00 | 0.00 | 0.00 | 65 | 1022.9 |
| 20260510141004 | 52 | 280 | 5.0 | 11.0 | 0.00 | 0.00 | 0.00 | 65 | 1022.8 |
| 20260510140903 | 52 | 273 | 7.0 | 11.0 | 0.00 | 0.00 | 0.00 | 65 | 1022.6 |
| 20260510140803 | 52 | 265 | 5.0 | 11.0 | 0.00 | 0.00 | 0.00 | 65 | 1022.7 |
| 20260510140604 | 53 | 280 | 4.0 | 9.0 | 0.00 | 0.00 | 0.00 | 66 | 1022.5 |
| 20260510140505 | 52 | 283 | 3.0 | 11.0 | 0.00 | 0.00 | 0.00 | 67 | 1022.5 |
| 20260510140417 | 52 | 285 | 4.0 | 11.0 | 0.00 | 0.00 | 0.00 | 67 | 1023.0 |
| 20260510140404 | 52 | 286 | 4.0 | 11.0 | 0.00 | 0.00 | 0.00 | 67 | 1023.0 |
| 20260510140305 | 52 | 295 | 4.0 | 11.0 | 0.00 | 0.00 | 0.00 | 66 | 1022.7 |
| 20260510140214 | 52 | 300 | 6.0 | 11.0 | 0.00 | 0.00 | 0.00 | 66 | 1022.9 |
| 20260510135904 | 52 | 301 | 5.0 | 11.0 | 0.00 | 0.00 | 0.00 | 67 | 1022.8 |
| 20260510135808 | 51 | 298 | 5.0 | 11.0 | 0.00 | 0.00 | 0.00 | 67 | 1022.8 |
| 20260510135717 | 51 | 296 | 7.0 | 11.0 | 0.00 | 0.00 | 0.00 | 67 | 1022.7 |
| 20260510135704 | 52 | 293 | 5.0 | 11.0 | 0.00 | 0.00 | 0.00 | 67 | 1023.0 |
| 20260510135616 | 51 | 284 | 8.0 | 11.0 | 0.00 | 0.00 | 0.00 | 67 | 1022.9 |
| 20260510135603 | 51 | 283 | 8.0 | 11.0 | 0.00 | 0.00 | 0.00 | 67 | 1022.9 |
| 20260510135306 | 52 | 285 | 4.0 | 7.0 | 0.00 | 0.00 | 0.00 | 68 | 1022.8 |
| 20260510135205 | 52 | 284 | 4.0 | 7.0 | 0.00 | 0.00 | 0.00 | 68 | 1022.8 |
| 20260510135104 | 52 | 287 | 3.0 | 6.0 | 0.00 | 0.00 | 0.00 | 68 | 1022.9 |
| 20260510135003 | 52 | 290 | 2.0 | 6.0 | 0.00 | 0.00 | 0.00 | 69 | 1023.0 |
| 20260510134903 | 52 | 289 | 2.0 | 6.0 | 0.00 | 0.00 | 0.00 | 69 | 1022.9 |
| 20260510134808 | 51 | 283 | 2.0 | 6.0 | 0.00 | 0.00 | 0.00 | 69 | 1022.8 |
| 20260510134703 | 51 | 276 | 4.0 | 6.0 | 0.00 | 0.00 | 0.00 | 69 | 1022.7 |
| 20260510134604 | 51 | 280 | 3.0 | 6.0 | 0.00 | 0.00 | 0.00 | 70 | 1023.0 |
| 20260510134503 | 51 | 295 | 2.0 | 7.0 | 0.00 | 0.00 | 0.00 | 70 | 1023.0 |
| 20260510134405 | 51 | 319 | 1.0 | 7.0 | 0.00 | 0.00 | 0.00 | 71 | 1022.8 |
| 20260510134307 | 51 | 314 | 2.0 | 7.0 | 0.00 | 0.00 | 0.00 | 71 | 1022.9 |
| 20260510134205 | 51 | 318 | 4.0 | 7.0 | 0.00 | 0.00 | 0.00 | 70 | 1022.8 |
| 20260510134103 | 51 | 310 | 2.0 | 7.0 | 0.00 | 0.00 | 0.00 | 71 | 1022.8 |
| 20260510134003 | 50 | 280 | 4.0 | 7.0 | 0.00 | 0.00 | 0.00 | 70 | 1022.9 |
| 20260510133904 | 51 | 263 | 2.0 | 7.0 | 0.00 | 0.00 | 0.00 | 71 | 1022.9 |
| 20260510133804 | 50 | 264 | 2.0 | 7.0 | 0.00 | 0.00 | 0.00 | 71 | 1023.0 |
| 20260510133704 | 50 | 270 | 3.0 | 7.0 | 0.00 | 0.00 | 0.00 | 71 | 1022.8 |
| 20260510133604 | 50 | 285 | 4.0 | 7.0 | 0.00 | 0.00 | 0.00 | 70 | 1022.9 |
| 20260510133503 | 50 | 292 | 4.0 | 7.0 | 0.00 | 0.00 | 0.00 | 70 | 1022.9 |
| 20260510133405 | 50 | 297 | 3.0 | 7.0 | 0.00 | 0.00 | 0.00 | 70 | 1023.2 |
| 20260510133304 | 50 | 309 | 2.0 | 8.0 | 0.00 | 0.00 | 0.00 | 71 | 1022.9 |
| 20260510133204 | 50 | 316 | 4.0 | 8.0 | 0.00 | 0.00 | 0.00 | 71 | 1023.0 |
| 20260510133103 | 50 | 317 | 3.0 | 8.0 | 0.00 | 0.00 | 0.00 | 71 | 1023.1 |
| 20260510133004 | 50 | 318 | 4.0 | 8.0 | 0.00 | 0.00 | 0.00 | 72 | 1022.9 |
| 20260510132904 | 49 | 318 | 4.0 | 8.0 | 0.00 | 0.00 | 0.00 | 72 | 1022.9 |
| 20260510132816 | 49 | 310 | 4.0 | 8.0 | 0.00 | 0.00 | 0.00 | 72 | 1022.8 |
| 20260510132807 | 49 | 307 | 4.0 | 8.0 | 0.00 | 0.00 | 0.00 | 72 | 1022.8 |
| 20260510132704 | 49 | 286 | 4.0 | 8.0 | 0.00 | 0.00 | 0.00 | 72 | 1023.1 |
| 20260510132504 | 49 | 278 | 3.0 | 7.0 | 0.00 | 0.00 | 0.00 | 73 | 1023.0 |
| 20260510132404 | 49 | 287 | 3.0 | 7.0 | 0.00 | 0.00 | 0.00 | 73 | 1022.8 |
| 20260510132306 | 49 | 291 | 4.0 | 7.0 | 0.00 | 0.00 | 0.00 | 73 | 1022.8 |
| 20260510132203 | 49 | 291 | 4.0 | 7.0 | 0.00 | 0.00 | 0.00 | 73 | 1022.8 |
| 20260510132004 | 48 | 314 | 6.0 | 7.0 | 0.00 | 0.00 | 0.00 | 73 | 1022.9 |
| 20260510131903 | 49 | 311 | 4.0 | 7.0 | 0.00 | 0.00 | 0.00 | 73 | 1022.9 |
| 20260510131804 | 49 | 312 | 2.0 | 7.0 | 0.00 | 0.00 | 0.00 | 73 | 1023.0 |
| 20260510131704 | 48 | 327 | 4.0 | 7.0 | 0.00 | 0.00 | 0.00 | 72 | 1022.7 |
| 20260510131604 | 49 | 326 | 4.0 | 7.0 | 0.00 | 0.00 | 0.00 | 73 | 1022.8 |
| 20260510131504 | 49 | 322 | 2.0 | 7.0 | 0.00 | 0.00 | 0.00 | 73 | 1022.7 |
| 20260510131404 | 49 | 324 | 2.0 | 7.0 | 0.00 | 0.00 | 0.00 | 73 | 1022.6 |
| 20260510131305 | 48 | 328 | 3.0 | 7.0 | 0.00 | 0.00 | 0.00 | 74 | 1022.8 |
| 20260510131204 | 48 | 325 | 3.0 | 7.0 | 0.00 | 0.00 | 0.00 | 73 | 1022.4 |
| 20260510131106 | 48 | 324 | 2.0 | 6.0 | 0.00 | 0.00 | 0.00 | 73 | 1022.6 |
| 20260510131005 | 48 | 315 | 3.0 | 6.0 | 0.00 | 0.00 | 0.00 | 73 | 1022.4 |
| 20260510130903 | 49 | 328 | 3.0 | 7.0 | 0.00 | 0.00 | 0.00 | 73 | 1022.5 |
| 20260510130803 | 48 | 330 | 2.0 | 7.0 | 0.00 | 0.00 | 0.00 | 73 | 1022.7 |
| 20260510130704 | 48 | 332 | 2.0 | 7.0 | 0.00 | 0.00 | 0.00 | 73 | 1022.6 |
| 20260510130605 | 48 | 331 | 4.0 | 7.0 | 0.00 | 0.00 | 0.00 | 73 | 1022.5 |
| 20260510130505 | 48 | 331 | 4.0 | 7.0 | 0.00 | 0.00 | 0.00 | 74 | 1022.5 |
| 20260510130413 | 48 | 319 | 4.0 | 7.0 | 0.00 | 0.00 | 0.00 | 74 | 1022.5 |
| 20260510130404 | 48 | 313 | 4.0 | 7.0 | 0.00 | 0.00 | 0.00 | 74 | 1022.5 |
| 20260510130303 | 48 | 307 | 2.0 | 6.0 | 0.00 | 0.00 | 0.00 | 74 | 1022.6 |
| 20260510130107 | 47 | 298 | 3.0 | 4.0 | 0.00 | 0.00 | 0.00 | 74 | 1022.7 |
| 20260510130004 | 47 | 298 | 2.0 | 4.0 | 0.00 | 0.00 | 0.00 | 75 | 1022.7 |
| 20260510125903 | 47 | 288 | 2.0 | 4.0 | 0.00 | 0.00 | 0.00 | 75 | 1022.6 |
| 20260510125804 | 47 | 284 | 2.0 | 6.0 | 0.00 | 0.00 | 0.00 | 75 | 1022.7 |
| 20260510125703 | 47 | 288 | 2.0 | 6.0 | 0.00 | 0.00 | 0.00 | 75 | 1022.8 |
| 20260510125606 | 47 | 292 | 2.0 | 6.0 | 0.00 | 0.00 | 0.00 | 76 | 1022.9 |
| 20260510125503 | 47 | 296 | 2.0 | 6.0 | 0.00 | 0.00 | 0.00 | 76 | 1022.7 |
| 20260510125403 | 46 | 301 | 3.0 | 6.0 | 0.00 | 0.00 | 0.00 | 76 | 1022.8 |
| 20260510125306 | 47 | 300 | 2.0 | 6.0 | 0.00 | 0.00 | 0.00 | 77 | 1023.0 |
| 20260510125204 | 46 | 286 | 2.0 | 4.0 | 0.00 | 0.00 | 0.00 | 77 | 1023.0 |
| 20260510125104 | 46 | 275 | 2.0 | 4.0 | 0.00 | 0.00 | 0.00 | 77 | 1022.8 |
| 20260510124904 | 46 | 266 | 1.0 | 4.0 | 0.00 | 0.00 | 0.00 | 78 | 1022.9 |
| 20260510124804 | 46 | 263 | 2.0 | 4.0 | 0.00 | 0.00 | 0.00 | 79 | 1023.1 |
| 20260510124703 | 45 | 257 | 2.0 | 4.0 | 0.00 | 0.00 | 0.00 | 79 | 1023.2 |
| 20260510124604 | 45 | 261 | 2.0 | 6.0 | 0.00 | 0.00 | 0.00 | 79 | 1023.1 |
| 20260510124503 | 45 | 265 | 2.0 | 6.0 | 0.00 | 0.00 | 0.00 | 80 | 1023.1 |
| 20260510124404 | 44 | 264 | 2.0 | 6.0 | 0.00 | 0.00 | 0.00 | 80 | 1023.1 |
| 20260510124307 | 44 | 266 | 2.0 | 6.0 | 0.00 | 0.00 | 0.00 | 80 | 1023.0 |
| 20260510124204 | 44 | 268 | 2.0 | 6.0 | 0.00 | 0.00 | 0.00 | 80 | 1023.0 |
| 20260510124115 | 44 | 269 | 2.0 | 6.0 | 0.00 | 0.00 | 0.00 | 80 | 1023.2 |
| 20260510124104 | 44 | 268 | 2.0 | 6.0 | 0.00 | 0.00 | 0.00 | 80 | 1023.0 |
| 20260510124019 | 44 | 261 | 4.0 | 6.0 | 0.00 | 0.00 | 0.00 | 80 | 1023.1 |
| 20260510124003 | 44 | 260 | 4.0 | 6.0 | 0.00 | 0.00 | 0.00 | 80 | 1023.1 |
| 20260510123704 | 43 | 250 | 3.0 | 7.0 | 0.00 | 0.00 | 0.00 | 81 | 1022.8 |
| 20260510123605 | 43 | 245 | 4.0 | 7.0 | 0.00 | 0.00 | 0.00 | 81 | 1022.8 |
| 20260510123504 | 43 | 250 | 3.0 | 7.0 | 0.00 | 0.00 | 0.00 | 81 | 1022.9 |
| 20260510123404 | 43 | 246 | 4.0 | 7.0 | 0.00 | 0.00 | 0.00 | 81 | 1023.1 |
| 20260510123304 | 43 | 247 | 4.0 | 7.0 | 0.00 | 0.00 | 0.00 | 81 | 1022.8 |
| 20260510123104 | 43 | 248 | 4.0 | 7.0 | 0.00 | 0.00 | 0.00 | 81 | 1022.8 |
| 20260510123004 | 42 | 247 | 4.0 | 7.0 | 0.00 | 0.00 | 0.00 | 81 | 1022.9 |
| 20260510122904 | 42 | 257 | 4.0 | 7.0 | 0.00 | 0.00 | 0.00 | 81 | 1023.0 |
| 20260510122704 | 42 | 259 | 4.0 | 7.0 | 0.00 | 0.00 | 0.00 | 81 | 1022.6 |
| 20260510122604 | 43 | 266 | 2.0 | 7.0 | 0.00 | 0.00 | 0.00 | 81 | 1022.6 |
| 20260510122504 | 42 | 270 | 2.0 | 7.0 | 0.00 | 0.00 | 0.00 | 81 | 1022.8 |
| 20260510122404 | 42 | 272 | 4.0 | 7.0 | 0.00 | 0.00 | 0.00 | 81 | 1022.6 |
| 20260510122306 | 42 | 282 | 4.0 | 7.0 | 0.00 | 0.00 | 0.00 | 81 | 1022.6 |
| 20260510122203 | 42 | 289 | 4.0 | 7.0 | 0.00 | 0.00 | 0.00 | 81 | 1022.6 |
| 20260510122117 | 42 | 292 | 4.0 | 7.0 | 0.00 | 0.00 | 0.00 | 81 | 1022.5 |
| 20260510122104 | 42 | 291 | 4.0 | 7.0 | 0.00 | 0.00 | 0.00 | 82 | 1022.8 |
| 20260510122005 | 42 | 292 | 3.0 | 7.0 | 0.00 | 0.00 | 0.00 | 82 | 1022.5 |
| 20260510121914 | 42 | 290 | 2.0 | 7.0 | 0.00 | 0.00 | 0.00 | 82 | 1022.4 |
| 20260510121803 | 42 | 276 | 2.0 | 6.0 | 0.00 | 0.00 | 0.00 | 82 | 1022.3 |
| 20260510121604 | 42 | 257 | 3.0 | 6.0 | 0.00 | 0.00 | 0.00 | 82 | 1022.2 |
| 20260510121504 | 42 | 252 | 2.0 | 6.0 | 0.00 | 0.00 | 0.00 | 83 | 1022.4 |
| 20260510121418 | 41 | 246 | 3.0 | 6.0 | 0.00 | 0.00 | 0.00 | 83 | 1022.3 |
| 20260510121403 | 42 | 245 | 2.0 | 6.0 | 0.00 | 0.00 | 0.00 | 83 | 1022.3 |
| 20260510121303 | 41 | 249 | 4.0 | 6.0 | 0.00 | 0.00 | 0.00 | 83 | 1022.4 |
| 20260510121118 | 41 | 252 | 2.0 | 6.0 | 0.00 | 0.00 | 0.00 | 83 | 1022.3 |
| 20260510121103 | 41 | 251 | 2.0 | 6.0 | 0.00 | 0.00 | 0.00 | 83 | 1022.3 |
| 20260510121005 | 41 | 257 | 3.0 | 6.0 | 0.00 | 0.00 | 0.00 | 83 | 1022.4 |
| 20260510120819 | 41 | 270 | 2.0 | 6.0 | 0.00 | 0.00 | 0.00 | 84 | 1022.1 |
| 20260510120805 | 41 | 271 | 2.0 | 6.0 | 0.00 | 0.00 | 0.00 | 84 | 1022.1 |
| 20260510120703 | 41 | 281 | 3.0 | 6.0 | 0.00 | 0.00 | 0.00 | 84 | 1022.2 |
| 20260510120503 | 40 | 285 | 2.0 | 6.0 | 0.00 | 0.00 | 0.00 | 84 | 1021.9 |
| 20260510120403 | 40 | 278 | 2.0 | 6.0 | 0.00 | 0.00 | 0.00 | 84 | 1021.9 |
| 20260510120303 | 40 | 275 | 2.0 | 6.0 | 0.00 | 0.00 | 0.00 | 85 | 1022.1 |
| 20260510120204 | 40 | 276 | 2.0 | 6.0 | 0.00 | 0.00 | 0.00 | 85 | 1022.2 |
| 20260510120103 | 40 | 279 | 2.0 | 6.0 | 0.00 | 0.00 | 0.00 | 85 | 1022.3 |
| 20260510120013 | 40 | 272 | 4.0 | 6.0 | 0.00 | 0.00 | 0.00 | 85 | 1022.3 |
| 20260510120004 | 40 | 276 | 4.0 | 6.0 | 0.00 | 0.00 | 0.00 | 85 | 1022.3 |
| 20260510115904 | 40 | 282 | 2.0 | 4.0 | 0.00 | 0.00 | 0.00 | 85 | 1022.1 |
| 20260510115704 | 40 | 280 | 2.0 | 7.0 | 0.00 | 0.00 | 0.00 | 85 | 1022.2 |
| 20260510115605 | 40 | 280 | 3.0 | 7.0 | 0.00 | 0.00 | 0.00 | 85 | 1022.2 |
| 20260510115503 | 40 | 281 | 1.0 | 7.0 | 0.00 | 0.00 | 0.00 | 86 | 1022.2 |
| 20260510115403 | 39 | 281 | 2.0 | 7.0 | 0.00 | 0.00 | 0.00 | 86 | 1022.2 |
| 20260510115307 | 39 | 289 | 3.0 | 7.0 | 0.00 | 0.00 | 0.00 | 86 | 1022.2 |
| 20260510115206 | 39 | 284 | 2.0 | 4.0 | 0.00 | 0.00 | 0.00 | 86 | 1022.1 |
| 20260510115105 | 39 | 287 | 2.0 | 4.0 | 0.00 | 0.00 | 0.00 | 86 | 1022.2 |
| 20260510115003 | 39 | 288 | 2.0 | 4.0 | 0.00 | 0.00 | 0.00 | 86 | 1022.3 |
| 20260510114904 | 39 | 291 | 2.0 | 4.0 | 0.00 | 0.00 | 0.00 | 87 | 1022.4 |
| 20260510114816 | 39 | 290 | 2.0 | 4.0 | 0.00 | 0.00 | 0.00 | 87 | 1022.3 |
| 20260510114705 | 39 | 279 | 2.0 | 4.0 | 0.00 | 0.00 | 0.00 | 87 | 1022.4 |
| 20260510114505 | 39 | 272 | 2.0 | 4.0 | 0.00 | 0.00 | 0.00 | 87 | 1022.1 |
| 20260510114404 | 39 | 278 | 2.0 | 4.0 | 0.00 | 0.00 | 0.00 | 87 | 1022.2 |
| 20260510114303 | 39 | 278 | 1.0 | 4.0 | 0.00 | 0.00 | 0.00 | 87 | 1022.1 |
| 20260510114204 | 38 | 278 | 2.0 | 4.0 | 0.00 | 0.00 | 0.00 | 87 | 1022.3 |
| 20260510114103 | 38 | 289 | 2.0 | 4.0 | 0.00 | 0.00 | 0.00 | 88 | 1022.5 |
| 20260510114004 | 38 | 288 | 2.0 | 4.0 | 0.00 | 0.00 | 0.00 | 88 | 1022.5 |
| 20260510113904 | 38 | 276 | 2.0 | 4.0 | 0.00 | 0.00 | 0.00 | 88 | 1022.3 |
| 20260510113803 | 38 | 269 | 2.0 | 4.0 | 0.00 | 0.00 | 0.00 | 88 | 1022.4 |
| 20260510113703 | 38 | 264 | 2.0 | 4.0 | 0.00 | 0.00 | 0.00 | 88 | 1022.3 |
| 20260510113614 | 38 | 254 | 2.0 | 4.0 | 0.00 | 0.00 | 0.00 | 88 | 1022.6 |
| 20260510113505 | 38 | 255 | 2.0 | 4.0 | 0.00 | 0.00 | 0.00 | 88 | 1022.4 |
| 20260510113304 | 38 | 258 | 2.0 | 4.0 | 0.00 | 0.00 | 0.00 | 88 | 1022.4 |
| 20260510113203 | 38 | 260 | 2.0 | 4.0 | 0.00 | 0.00 | 0.00 | 88 | 1022.2 |
| 20260510113104 | 38 | 261 | 2.0 | 4.0 | 0.00 | 0.00 | 0.00 | 88 | 1022.3 |
| 20260510113004 | 38 | 261 | 2.0 | 4.0 | 0.00 | 0.00 | 0.00 | 88 | 1022.2 |
| 20260510112907 | 38 | 266 | 1.0 | 4.0 | 0.00 | 0.00 | 0.00 | 89 | 1022.3 |
| 20260510112803 | 38 | 266 | 1.0 | 4.0 | 0.00 | 0.00 | 0.00 | 89 | 1022.3 |
| 20260510112703 | 38 | 271 | 3.0 | 4.0 | 0.00 | 0.00 | 0.00 | 89 | 1022.2 |
| 20260510112606 | 38 | 270 | 2.0 | 4.0 | 0.00 | 0.00 | 0.00 | 89 | 1022.2 |
| 20260510112504 | 37 | 271 | 3.0 | 4.0 | 0.00 | 0.00 | 0.00 | 89 | 1022.1 |
| 20260510112403 | 37 | 274 | 3.0 | 4.0 | 0.00 | 0.00 | 0.00 | 89 | 1021.9 |
| 20260510112306 | 38 | 270 | 2.0 | 4.0 | 0.00 | 0.00 | 0.00 | 89 | 1021.9 |
| 20260510112103 | 37 | 262 | 1.0 | 2.0 | 0.00 | 0.00 | 0.00 | 89 | 1022.1 |
| 20260510112016 | 37 | 262 | 2.0 | 2.0 | 0.00 | 0.00 | 0.00 | 89 | 1022.0 |
| 20260510112006 | 37 | 260 | 2.0 | 2.0 | 0.00 | 0.00 | 0.00 | 89 | 1022.0 |
| 20260510111705 | 37 | 266 | 2.0 | 4.0 | 0.00 | 0.00 | 0.00 | 90 | 1022.1 |
| 20260510111605 | 37 | 270 | 2.0 | 4.0 | 0.00 | 0.00 | 0.00 | 90 | 1022.1 |
| 20260510111504 | 37 | 265 | 1.0 | 4.0 | 0.00 | 0.00 | 0.00 | 90 | 1021.9 |
| 20260510111405 | 37 | 263 | 2.0 | 4.0 | 0.00 | 0.00 | 0.00 | 90 | 1022.0 |
| 20260510111306 | 37 | 271 | 2.0 | 4.0 | 0.00 | 0.00 | 0.00 | 90 | 1022.2 |
| 20260510111220 | 36 | 274 | 2.0 | 4.0 | 0.00 | 0.00 | 0.00 | 90 | 1022.0 |
| 20260510111203 | 36 | 275 | 2.0 | 4.0 | 0.00 | 0.00 | 0.00 | 90 | 1022.0 |
| 20260510111105 | 36 | 277 | 2.0 | 4.0 | 0.00 | 0.00 | 0.00 | 90 | 1021.8 |
| 20260510110803 | 36 | 289 | 2.0 | 4.0 | 0.00 | 0.00 | 0.00 | 90 | 1021.8 |
| 20260510110703 | 36 | 288 | 2.0 | 4.0 | 0.00 | 0.00 | 0.00 | 90 | 1021.7 |
| 20260510110604 | 36 | 290 | 1.0 | 4.0 | 0.00 | 0.00 | 0.00 | 90 | 1021.9 |
| 20260510110507 | 36 | 285 | 2.0 | 4.0 | 0.00 | 0.00 | 0.00 | 90 | 1022.0 |
| 20260510110403 | 36 | 283 | 2.0 | 4.0 | 0.00 | 0.00 | 0.00 | 90 | 1021.8 |
| 20260510110306 | 36 | 272 | 2.0 | 4.0 | 0.00 | 0.00 | 0.00 | 90 | 1022.0 |
| 20260510110203 | 36 | 269 | 1.0 | 4.0 | 0.00 | 0.00 | 0.00 | 90 | 1022.1 |
| 20260510110103 | 37 | 258 | 1.0 | 2.0 | 0.00 | 0.00 | 0.00 | 90 | 1022.1 |
| 20260510110007 | 37 | 257 | 2.0 | 2.0 | 0.00 | 0.00 | 0.00 | 90 | 1022.2 |
| 20260510105903 | 36 | 258 | 2.0 | 2.0 | 0.00 | 0.00 | 0.00 | 90 | 1022.1 |
| 20260510105804 | 37 | 264 | 1.0 | 2.0 | 0.00 | 0.00 | 0.00 | 90 | 1022.0 |
| 20260510105705 | 37 | 259 | 2.0 | 4.0 | 0.00 | 0.00 | 0.00 | 90 | 1022.2 |
| 20260510105605 | 37 | 261 | 1.0 | 4.0 | 0.00 | 0.00 | 0.00 | 90 | 1021.9 |
| 20260510105505 | 37 | 259 | 2.0 | 4.0 | 0.00 | 0.00 | 0.00 | 90 | 1022.1 |
| 20260510105306 | 37 | 252 | 2.0 | 4.0 | 0.00 | 0.00 | 0.00 | 90 | 1022.1 |
| 20260510105204 | 37 | 253 | 1.0 | 4.0 | 0.00 | 0.00 | 0.00 | 89 | 1022.0 |
| 20260510105104 | 37 | 259 | 1.0 | 4.0 | 0.00 | 0.00 | 0.00 | 89 | 1022.2 |
| 20260510104904 | 37 | 259 | 2.0 | 4.0 | 0.00 | 0.00 | 0.00 | 89 | 1021.8 |
| 20260510104805 | 37 | 256 | 2.0 | 4.0 | 0.00 | 0.00 | 0.00 | 89 | 1022.0 |
| 20260510104704 | 37 | 256 | 2.0 | 4.0 | 0.00 | 0.00 | 0.00 | 89 | 1021.9 |
| 20260510104604 | 37 | 250 | 2.0 | 4.0 | 0.00 | 0.00 | 0.00 | 89 | 1021.8 |
| 20260510104504 | 37 | 251 | 2.0 | 4.0 | 0.00 | 0.00 | 0.00 | 89 | 1021.9 |
| 20260510104403 | 37 | 253 | 2.0 | 4.0 | 0.00 | 0.00 | 0.00 | 89 | 1022.0 |
| 20260510104305 | 37 | 253 | 2.0 | 4.0 | 0.00 | 0.00 | 0.00 | 89 | 1021.8 |
| 20260510104104 | 37 | 258 | 1.0 | 4.0 | 0.00 | 0.00 | 0.00 | 89 | 1021.8 |
| 20260510104004 | 37 | 258 | 2.0 | 4.0 | 0.00 | 0.00 | 0.00 | 89 | 1021.9 |
| 20260510103904 | 37 | 257 | 2.0 | 4.0 | 0.00 | 0.00 | 0.00 | 89 | 1021.9 |
| 20260510103803 | 37 | 257 | 2.0 | 4.0 | 0.00 | 0.00 | 0.00 | 89 | 1021.8 |
| 20260510103706 | 37 | 263 | 2.0 | 2.0 | 0.00 | 0.00 | 0.00 | 89 | 1021.8 |
| 20260510103503 | 37 | 265 | 1.0 | 2.0 | 0.00 | 0.00 | 0.00 | 89 | 1021.8 |
| 20260510103405 | 37 | 275 | 2.0 | 2.0 | 0.00 | 0.00 | 0.00 | 89 | 1021.7 |
| 20260510103303 | 37 | 281 | 2.0 | 2.0 | 0.00 | 0.00 | 0.00 | 90 | 1021.7 |
| 20260510103204 | 37 | 284 | 2.0 | 2.0 | 0.00 | 0.00 | 0.00 | 90 | 1021.5 |
| 20260510103104 | 37 | 284 | 2.0 | 2.0 | 0.00 | 0.00 | 0.00 | 90 | 1021.7 |
| 20260510103003 | 37 | 282 | 1.0 | 2.0 | 0.00 | 0.00 | 0.00 | 90 | 1021.7 |
| 20260510102905 | 37 | 269 | 2.0 | 2.0 | 0.00 | 0.00 | 0.00 | 90 | 1021.4 |
| 20260510102803 | 37 | 265 | 2.0 | 2.0 | 0.00 | 0.00 | 0.00 | 90 | 1021.6 |
| 20260510102604 | 37 | 274 | 2.0 | 4.0 | 0.00 | 0.00 | 0.00 | 89 | 1021.7 |
| 20260510102504 | 37 | 272 | 2.0 | 4.0 | 0.00 | 0.00 | 0.00 | 89 | 1021.4 |
| 20260510102404 | 37 | 275 | 2.0 | 4.0 | 0.00 | 0.00 | 0.00 | 89 | 1021.5 |
| 20260510102306 | 37 | 278 | 2.0 | 4.0 | 0.00 | 0.00 | 0.00 | 89 | 1021.5 |
| 20260510102205 | 37 | 275 | 2.0 | 4.0 | 0.00 | 0.00 | 0.00 | 89 | 1021.6 |
| 20260510102106 | 37 | 269 | 2.0 | 4.0 | 0.00 | 0.00 | 0.00 | 89 | 1021.7 |
| 20260510101916 | 37 | 265 | 2.0 | 4.0 | 0.00 | 0.00 | 0.00 | 89 | 1021.6 |
| 20260510101803 | 37 | 254 | 2.0 | 4.0 | 0.00 | 0.00 | 0.00 | 89 | 1021.7 |
| 20260510101604 | 37 | 247 | 1.0 | 4.0 | 0.00 | 0.00 | 0.00 | 89 | 1021.5 |
| 20260510101503 | 37 | 247 | 2.0 | 4.0 | 0.00 | 0.00 | 0.00 | 89 | 1021.6 |
| 20260510101403 | 37 | 247 | 2.0 | 4.0 | 0.00 | 0.00 | 0.00 | 89 | 1021.8 |
| 20260510101304 | 37 | 247 | 2.0 | 4.0 | 0.00 | 0.00 | 0.00 | 89 | 1021.7 |
| 20260510101204 | 37 | 247 | 2.0 | 4.0 | 0.00 | 0.00 | 0.00 | 89 | 1021.7 |
| 20260510101106 | 37 | 247 | 2.0 | 4.0 | 0.00 | 0.00 | 0.00 | 89 | 1021.8 |
| 20260510101013 | 37 | 250 | 2.0 | 4.0 | 0.00 | 0.00 | 0.00 | 89 | 1021.6 |
| 20260510101003 | 37 | 251 | 2.0 | 4.0 | 0.00 | 0.00 | 0.00 | 89 | 1021.6 |
| 20260510100917 | 37 | 253 | 2.0 | 4.0 | 0.00 | 0.00 | 0.00 | 89 | 1021.6 |
| 20260510100903 | 37 | 255 | 2.0 | 4.0 | 0.00 | 0.00 | 0.00 | 89 | 1021.6 |
| 20260510100605 | 37 | 278 | 2.0 | 4.0 | 0.00 | 0.00 | 0.00 | 89 | 1021.8 |
| 20260510100503 | 37 | 282 | 2.0 | 4.0 | 0.00 | 0.00 | 0.00 | 89 | 1021.5 |
| 20260510100415 | 37 | 283 | 1.0 | 4.0 | 0.00 | 0.00 | 0.00 | 89 | 1021.6 |
| 20260510100403 | 37 | 282 | 1.0 | 4.0 | 0.00 | 0.00 | 0.00 | 89 | 1021.6 |
| 20260510100304 | 37 | 276 | 2.0 | 4.0 | 0.00 | 0.00 | 0.00 | 89 | 1021.2 |
| 20260510100105 | 37 | 259 | 1.0 | 2.0 | 0.00 | 0.00 | 0.00 | 89 | 1021.2 |
| 20260510100014 | 37 | 251 | 1.0 | 2.0 | 0.00 | 0.00 | 0.00 | 89 | 1021.4 |
| 20260510100004 | 37 | 248 | 1.0 | 2.0 | 0.00 | 0.00 | 0.00 | 89 | 1021.4 |
| 20260510095904 | 37 | 247 | 2.0 | 2.0 | 0.00 | 0.00 | 0.00 | 89 | 1021.4 |
| 20260510095704 | 37 | 248 | 2.0 | 4.0 | 0.00 | 0.00 | 0.00 | 89 | 1021.3 |
| 20260510095606 | 37 | 254 | 2.0 | 4.0 | 0.00 | 0.00 | 0.00 | 89 | 1021.5 |
| 20260510095503 | 37 | 263 | 2.0 | 4.0 | 0.00 | 0.00 | 0.00 | 89 | 1021.5 |
| 20260510095404 | 37 | 268 | 2.0 | 4.0 | 0.00 | 0.00 | 0.00 | 89 | 1021.6 |
| 20260510095305 | 37 | 277 | 2.0 | 4.0 | 0.00 | 0.00 | 0.00 | 89 | 1021.4 |
| 20260510095204 | 37 | 288 | 2.0 | 4.0 | 0.00 | 0.00 | 0.00 | 89 | 1021.4 |
| 20260510095105 | 37 | 290 | 2.0 | 4.0 | 0.00 | 0.00 | 0.00 | 89 | 1021.4 |
| 20260510095004 | 37 | 289 | 2.0 | 4.0 | 0.00 | 0.00 | 0.00 | 89 | 1021.1 |
| 20260510094904 | 37 | 291 | 1.0 | 4.0 | 0.00 | 0.00 | 0.00 | 89 | 1021.2 |
| 20260510094704 | 37 | 285 | 2.0 | 4.0 | 0.00 | 0.00 | 0.00 | 89 | 1021.3 |
| 20260510094604 | 38 | 283 | 2.0 | 4.0 | 0.00 | 0.00 | 0.00 | 89 | 1021.5 |
| 20260510094503 | 38 | 276 | 2.0 | 4.0 | 0.00 | 0.00 | 0.00 | 89 | 1021.5 |
| 20260510094404 | 38 | 264 | 2.0 | 4.0 | 0.00 | 0.00 | 0.00 | 89 | 1021.5 |
| 20260510094204 | 38 | 255 | 1.0 | 4.0 | 0.00 | 0.00 | 0.00 | 89 | 1021.7 |
| 20260510094103 | 38 | 253 | 2.0 | 4.0 | 0.00 | 0.00 | 0.00 | 89 | 1021.7 |
| 20260510094005 | 38 | 256 | 2.0 | 2.0 | 0.00 | 0.00 | 0.00 | 89 | 1021.8 |
| 20260510093903 | 38 | 261 | 2.0 | 2.0 | 0.00 | 0.00 | 0.00 | 89 | 1021.8 |
| 20260510093804 | 38 | 266 | 1.0 | 2.0 | 0.00 | 0.00 | 0.00 | 89 | 1021.6 |
| 20260510093705 | 38 | 266 | 1.0 | 2.0 | 0.00 | 0.00 | 0.00 | 89 | 1021.7 |
| 20260510093603 | 38 | 263 | 1.0 | 2.0 | 0.00 | 0.00 | 0.00 | 89 | 1021.6 |
| 20260510093505 | 38 | 260 | 1.0 | 2.0 | 0.00 | 0.00 | 0.00 | 89 | 1021.6 |
| 20260510093404 | 38 | 260 | 1.0 | 2.0 | 0.00 | 0.00 | 0.00 | 89 | 1021.5 |
| 20260510093303 | 38 | 262 | 1.0 | 2.0 | 0.00 | 0.00 | 0.00 | 89 | 1021.5 |
| 20260510093205 | 38 | 271 | 1.0 | 2.0 | 0.00 | 0.00 | 0.00 | 89 | 1021.3 |
| 20260510093103 | 38 | 281 | 1.0 | 2.0 | 0.00 | 0.00 | 0.00 | 89 | 1021.5 |
| 20260510093003 | 38 | 284 | 2.0 | 2.0 | 0.00 | 0.00 | 0.00 | 89 | 1021.3 |
| 20260510092903 | 38 | 286 | 1.0 | 2.0 | 0.00 | 0.00 | 0.00 | 89 | 1021.7 |
| 20260510092804 | 38 | 288 | 1.0 | 2.0 | 0.00 | 0.00 | 0.00 | 89 | 1021.4 |
| 20260510092705 | 38 | 287 | 2.0 | 2.0 | 0.00 | 0.00 | 0.00 | 89 | 1021.5 |
| 20260510092603 | 38 | 286 | 2.0 | 2.0 | 0.00 | 0.00 | 0.00 | 89 | 1021.3 |
| 20260510092504 | 38 | 290 | 2.0 | 2.0 | 0.00 | 0.00 | 0.00 | 89 | 1021.2 |
| 20260510092404 | 38 | 292 | 1.0 | 2.0 | 0.00 | 0.00 | 0.00 | 89 | 1021.3 |
| 20260510092306 | 38 | 281 | 1.0 | 2.0 | 0.00 | 0.00 | 0.00 | 89 | 1021.3 |
| 20260510092203 | 38 | 279 | 1.0 | 2.0 | 0.00 | 0.00 | 0.00 | 89 | 1021.3 |
| 20260510092103 | 38 | 279 | 1.0 | 2.0 | 0.00 | 0.00 | 0.00 | 89 | 1021.3 |
| 20260510092003 | 38 | 275 | 1.0 | 2.0 | 0.00 | 0.00 | 0.00 | 89 | 1021.3 |
| 20260510091903 | 38 | 273 | 2.0 | 2.0 | 0.00 | 0.00 | 0.00 | 89 | 1021.5 |
| 20260510091804 | 38 | 275 | 2.0 | 2.0 | 0.00 | 0.00 | 0.00 | 89 | 1021.3 |
| 20260510091719 | 38 | 279 | 1.0 | 2.0 | 0.00 | 0.00 | 0.00 | 89 | 1021.3 |
| 20260510091704 | 38 | 279 | 1.0 | 2.0 | 0.00 | 0.00 | 0.00 | 89 | 1021.4 |
| 20260510091603 | 38 | 281 | 1.0 | 2.0 | 0.00 | 0.00 | 0.00 | 89 | 1021.4 |
| 20260510091403 | 38 | 291 | 2.0 | 4.0 | 0.00 | 0.00 | 0.00 | 89 | 1021.2 |
| 20260510091303 | 38 | 297 | 1.0 | 4.0 | 0.00 | 0.00 | 0.00 | 89 | 1021.3 |
| 20260510091216 | 38 | 299 | 1.0 | 4.0 | 0.00 | 0.00 | 0.00 | 89 | 1021.4 |
| 20260510091115 | 38 | 298 | 1.0 | 4.0 | 0.00 | 0.00 | 0.00 | 89 | 1021.4 |
| 20260510091104 | 38 | 295 | 1.0 | 4.0 | 0.00 | 0.00 | 0.00 | 89 | 1021.4 |
| 20260510091014 | 38 | 292 | 2.0 | 4.0 | 0.00 | 0.00 | 0.00 | 89 | 1021.3 |
| 20260510090912 | 38 | 292 | 2.0 | 4.0 | 0.00 | 0.00 | 0.00 | 89 | 1021.3 |
| 20260510090714 | 38 | 290 | 2.0 | 4.0 | 0.00 | 0.00 | 0.00 | 89 | 1021.4 |
| 20260510090604 | 38 | 294 | 2.0 | 4.0 | 0.00 | 0.00 | 0.00 | 89 | 1021.4 |
| 20260510090304 | 38 | 296 | 2.0 | 4.0 | 0.00 | 0.00 | 0.00 | 89 | 1021.3 |
| 20260510090204 | 38 | 293 | 2.0 | 2.0 | 0.00 | 0.00 | 0.00 | 89 | 1021.3 |
| 20260510090104 | 38 | 285 | 2.0 | 2.0 | 0.00 | 0.00 | 0.00 | 89 | 1021.1 |
| 20260510090004 | 38 | 278 | 2.0 | 4.0 | 0.00 | 0.00 | 0.00 | 89 | 1021.4 |
| 20260510085903 | 38 | 280 | 2.0 | 4.0 | 0.00 | 0.00 | 0.00 | 89 | 1021.0 |
| 20260510085804 | 38 | 285 | 1.0 | 4.0 | 0.00 | 0.00 | 0.00 | 89 | 1021.2 |
| 20260510085705 | 38 | 280 | 2.0 | 4.0 | 0.00 | 0.00 | 0.00 | 89 | 1021.2 |
| 20260510085614 | 38 | 281 | 1.0 | 4.0 | 0.00 | 0.00 | 0.00 | 89 | 1021.3 |
| 20260510085604 | 38 | 280 | 1.0 | 4.0 | 0.00 | 0.00 | 0.00 | 89 | 1021.3 |
| 20260510085504 | 38 | 282 | 2.0 | 4.0 | 0.00 | 0.00 | 0.00 | 89 | 1021.1 |
| 20260510085306 | 38 | 282 | 1.0 | 2.0 | 0.00 | 0.00 | 0.00 | 89 | 1021.4 |
| 20260510085204 | 38 | 287 | 1.0 | 2.0 | 0.00 | 0.00 | 0.00 | 89 | 1021.1 |
| 20260510085105 | 38 | 287 | 1.0 | 2.0 | 0.00 | 0.00 | 0.00 | 89 | 1021.0 |
| 20260510085005 | 38 | 291 | 2.0 | 2.0 | 0.00 | 0.00 | 0.00 | 89 | 1021.0 |
| 20260510084904 | 38 | 288 | 1.0 | 2.0 | 0.00 | 0.00 | 0.00 | 89 | 1021.0 |
| 20260510084604 | 38 | 287 | 1.0 | 2.0 | 0.00 | 0.00 | 0.00 | 89 | 1021.2 |
| 20260510084504 | 38 | 285 | 1.0 | 2.0 | 0.00 | 0.00 | 0.00 | 88 | 1020.9 |
| 20260510084403 | 38 | 283 | 2.0 | 2.0 | 0.00 | 0.00 | 0.00 | 88 | 1021.2 |
| 20260510084304 | 38 | 278 | 1.0 | 2.0 | 0.00 | 0.00 | 0.00 | 88 | 1021.0 |
| 20260510084203 | 39 | 280 | 2.0 | 2.0 | 0.00 | 0.00 | 0.00 | 88 | 1021.3 |
| 20260510084105 | 39 | 286 | 2.0 | 2.0 | 0.00 | 0.00 | 0.00 | 88 | 1021.3 |
| 20260510083903 | 39 | 277 | 2.0 | 4.0 | 0.00 | 0.00 | 0.00 | 88 | 1021.1 |
| 20260510083805 | 39 | 273 | 2.0 | 4.0 | 0.00 | 0.00 | 0.00 | 88 | 1021.1 |
| 20260510083717 | 39 | 264 | 2.0 | 4.0 | 0.00 | 0.00 | 0.00 | 88 | 1020.9 |
| 20260510083603 | 39 | 252 | 2.0 | 4.0 | 0.00 | 0.00 | 0.00 | 88 | 1020.9 |
| 20260510083404 | 39 | 243 | 2.0 | 4.0 | 0.00 | 0.00 | 0.00 | 88 | 1021.0 |
| 20260510083303 | 39 | 242 | 3.0 | 4.0 | 0.00 | 0.00 | 0.00 | 88 | 1021.2 |
| 20260510083204 | 39 | 241 | 1.0 | 4.0 | 0.00 | 0.00 | 0.00 | 88 | 1021.1 |
| 20260510083104 | 39 | 241 | 2.0 | 4.0 | 0.00 | 0.00 | 0.00 | 88 | 1020.9 |
| 20260510083003 | 39 | 249 | 2.0 | 4.0 | 0.00 | 0.00 | 0.00 | 88 | 1021.2 |
| 20260510082903 | 39 | 249 | 2.0 | 4.0 | 0.00 | 0.00 | 0.00 | 88 | 1021.3 |
| 20260510082805 | 39 | 252 | 2.0 | 4.0 | 0.00 | 0.00 | 0.00 | 88 | 1021.2 |
| 20260510082713 | 39 | 256 | 2.0 | 4.0 | 0.00 | 0.00 | 0.00 | 88 | 1021.0 |
| 20260510082703 | 39 | 257 | 2.0 | 4.0 | 0.00 | 0.00 | 0.00 | 88 | 1021.0 |
| 20260510082604 | 39 | 257 | 2.0 | 4.0 | 0.00 | 0.00 | 0.00 | 88 | 1021.2 |
| 20260510082403 | 40 | 249 | 2.0 | 4.0 | 0.00 | 0.00 | 0.00 | 88 | 1020.9 |
| 20260510082307 | 40 | 248 | 2.0 | 4.0 | 0.00 | 0.00 | 0.00 | 88 | 1021.2 |
| 20260510082206 | 40 | 245 | 2.0 | 4.0 | 0.00 | 0.00 | 0.00 | 87 | 1020.7 |
| 20260510082115 | 40 | 243 | 3.0 | 4.0 | 0.00 | 0.00 | 0.00 | 87 | 1021.0 |
| 20260510081804 | 40 | 254 | 2.0 | 4.0 | 0.00 | 0.00 | 0.00 | 87 | 1020.8 |
| 20260510081703 | 40 | 258 | 2.0 | 4.0 | 0.00 | 0.00 | 0.00 | 87 | 1020.8 |
| 20260510081603 | 40 | 263 | 2.0 | 4.0 | 0.00 | 0.00 | 0.00 | 87 | 1020.8 |
| 20260510081505 | 40 | 265 | 2.0 | 4.0 | 0.00 | 0.00 | 0.00 | 88 | 1020.6 |
| 20260510081403 | 40 | 269 | 2.0 | 4.0 | 0.00 | 0.00 | 0.00 | 88 | 1020.7 |
| 20260510081304 | 40 | 271 | 2.0 | 4.0 | 0.00 | 0.00 | 0.00 | 88 | 1020.6 |
| 20260510081204 | 40 | 271 | 2.0 | 4.0 | 0.00 | 0.00 | 0.00 | 88 | 1020.6 |
| 20260510081004 | 40 | 281 | 2.0 | 4.0 | 0.00 | 0.00 | 0.00 | 88 | 1020.6 |
| 20260510080904 | 40 | 283 | 2.0 | 4.0 | 0.00 | 0.00 | 0.00 | 88 | 1020.4 |
| 20260510080804 | 40 | 284 | 1.0 | 4.0 | 0.00 | 0.00 | 0.00 | 88 | 1020.4 |
| 20260510080705 | 40 | 283 | 1.0 | 4.0 | 0.00 | 0.00 | 0.00 | 88 | 1020.6 |
| 20260510080603 | 40 | 284 | 1.0 | 4.0 | 0.00 | 0.00 | 0.00 | 88 | 1020.5 |
| 20260510080504 | 40 | 289 | 2.0 | 4.0 | 0.00 | 0.00 | 0.00 | 88 | 1020.6 |
| 20260510080305 | 40 | 292 | 2.0 | 4.0 | 0.00 | 0.00 | 0.00 | 88 | 1020.6 |
| 20260510080204 | 40 | 291 | 2.0 | 4.0 | 0.00 | 0.00 | 0.00 | 88 | 1020.8 |
| 20260510080103 | 40 | 296 | 2.0 | 4.0 | 0.00 | 0.00 | 0.00 | 88 | 1020.4 |
| 20260510080004 | 40 | 293 | 2.0 | 4.0 | 0.00 | 0.00 | 0.00 | 88 | 1020.6 |
| 20260510075914 | 40 | 296 | 2.0 | 4.0 | 0.00 | 0.00 | 0.00 | 88 | 1020.7 |
| 20260510075904 | 40 | 298 | 2.0 | 4.0 | 0.00 | 0.00 | 0.00 | 88 | 1020.7 |
| 20260510075804 | 40 | 293 | 2.0 | 4.0 | 0.00 | 0.00 | 0.00 | 88 | 1020.7 |
| 20260510075603 | 40 | 290 | 2.0 | 4.0 | 0.00 | 0.00 | 0.00 | 87 | 1020.7 |
| 20260510075505 | 40 | 289 | 1.0 | 4.0 | 0.00 | 0.00 | 0.00 | 87 | 1020.7 |
| 20260510075403 | 40 | 278 | 2.0 | 4.0 | 0.00 | 0.00 | 0.00 | 87 | 1020.8 |
| 20260510075207 | 40 | 259 | 2.0 | 4.0 | 0.00 | 0.00 | 0.00 | 87 | 1020.9 |
| 20260510075112 | 40 | 256 | 2.0 | 4.0 | 0.00 | 0.00 | 0.00 | 87 | 1021.1 |
| 20260510075104 | 40 | 252 | 2.0 | 4.0 | 0.00 | 0.00 | 0.00 | 87 | 1021.1 |
| 20260510075004 | 40 | 246 | 2.0 | 4.0 | 0.00 | 0.00 | 0.00 | 87 | 1021.1 |
| 20260510074818 | 40 | 251 | 2.0 | 4.0 | 0.00 | 0.00 | 0.00 | 87 | 1021.2 |
| 20260510074717 | 40 | 250 | 2.0 | 4.0 | 0.00 | 0.00 | 0.00 | 87 | 1021.1 |
| 20260510074703 | 40 | 248 | 2.0 | 4.0 | 0.00 | 0.00 | 0.00 | 87 | 1021.1 |
| 20260510074403 | 40 | 260 | 3.0 | 4.0 | 0.00 | 0.00 | 0.00 | 87 | 1021.3 |
| 20260510074304 | 40 | 266 | 2.0 | 4.0 | 0.00 | 0.00 | 0.00 | 87 | 1021.1 |
| 20260510074205 | 41 | 265 | 2.0 | 4.0 | 0.00 | 0.00 | 0.00 | 87 | 1021.2 |
| 20260510074104 | 41 | 263 | 2.0 | 4.0 | 0.00 | 0.00 | 0.00 | 87 | 1021.3 |
| 20260510074003 | 41 | 268 | 2.0 | 4.0 | 0.00 | 0.00 | 0.00 | 87 | 1021.3 |
| 20260510073904 | 41 | 268 | 2.0 | 4.0 | 0.00 | 0.00 | 0.00 | 87 | 1021.2 |
| 20260510073803 | 41 | 265 | 2.0 | 4.0 | 0.00 | 0.00 | 0.00 | 87 | 1021.2 |
| 20260510073703 | 41 | 269 | 1.0 | 4.0 | 0.00 | 0.00 | 0.00 | 87 | 1021.2 |
| 20260510073605 | 41 | 267 | 2.0 | 4.0 | 0.00 | 0.00 | 0.00 | 87 | 1021.3 |
| 20260510073414 | 41 | 270 | 2.0 | 4.0 | 0.00 | 0.00 | 0.00 | 87 | 1021.3 |
| 20260510073304 | 41 | 279 | 1.0 | 2.0 | 0.00 | 0.00 | 0.00 | 87 | 1021.2 |
| 20260510073103 | 41 | 292 | 1.0 | 2.0 | 0.00 | 0.00 | 0.00 | 87 | 1020.9 |
| 20260510073004 | 41 | 295 | 1.0 | 2.0 | 0.00 | 0.00 | 0.00 | 87 | 1021.3 |
| 20260510072904 | 41 | 295 | 1.0 | 2.0 | 0.00 | 0.00 | 0.00 | 87 | 1021.2 |
| 20260510072707 | 41 | 287 | 1.0 | 2.0 | 0.00 | 0.00 | 0.00 | 87 | 1021.1 |
| 20260510072604 | 41 | 285 | 1.0 | 4.0 | 0.00 | 0.00 | 0.00 | 87 | 1021.1 |
| 20260510072504 | 41 | 279 | 1.0 | 4.0 | 0.00 | 0.00 | 0.00 | 87 | 1021.3 |
| 20260510072407 | 41 | 278 | 2.0 | 4.0 | 0.00 | 0.00 | 0.00 | 87 | 1021.3 |
| 20260510072313 | 41 | 283 | 2.0 | 4.0 | 0.00 | 0.00 | 0.00 | 87 | 1021.3 |
| 20260510072305 | 41 | 284 | 2.0 | 4.0 | 0.00 | 0.00 | 0.00 | 87 | 1021.3 |
| 20260510072205 | 41 | 287 | 1.0 | 4.0 | 0.00 | 0.00 | 0.00 | 87 | 1021.5 |
| 20260510072019 | 41 | 284 | 2.0 | 4.0 | 0.00 | 0.00 | 0.00 | 87 | 1021.5 |
| 20260510071906 | 41 | 285 | 2.0 | 4.0 | 0.00 | 0.00 | 0.00 | 87 | 1021.3 |
| 20260510071704 | 41 | 283 | 2.0 | 4.0 | 0.00 | 0.00 | 0.00 | 86 | 1021.5 |
| 20260510071603 | 41 | 290 | 1.0 | 2.0 | 0.00 | 0.00 | 0.00 | 86 | 1021.5 |
| 20260510071404 | 41 | 300 | 1.0 | 4.0 | 0.00 | 0.00 | 0.00 | 86 | 1021.3 |
| 20260510071305 | 41 | 300 | 2.0 | 4.0 | 0.00 | 0.00 | 0.00 | 86 | 1021.2 |
| 20260510071204 | 41 | 297 | 2.0 | 4.0 | 0.00 | 0.00 | 0.00 | 86 | 1021.4 |
| 20260510071104 | 41 | 297 | 2.0 | 4.0 | 0.00 | 0.00 | 0.00 | 86 | 1021.4 |
| 20260510071006 | 41 | 294 | 2.0 | 4.0 | 0.00 | 0.00 | 0.00 | 86 | 1021.3 |
| 20260510070904 | 41 | 291 | 2.0 | 4.0 | 0.00 | 0.00 | 0.00 | 86 | 1022.0 |
| 20260510070716 | 41 | 280 | 2.0 | 4.0 | 0.00 | 0.00 | 0.00 | 86 | 1021.7 |
| 20260510070703 | 41 | 276 | 2.0 | 4.0 | 0.00 | 0.00 | 0.00 | 86 | 1021.7 |
| 20260510070606 | 41 | 275 | 1.0 | 2.0 | 0.00 | 0.00 | 0.00 | 86 | 1021.8 |
| 20260510070303 | 41 | 280 | 2.0 | 2.0 | 0.00 | 0.00 | 0.00 | 86 | 1021.7 |
| 20260510070203 | 41 | 283 | 1.0 | 2.0 | 0.00 | 0.00 | 0.00 | 86 | 1021.8 |
| 20260510070117 | 41 | 278 | 0.0 | 2.0 | 0.00 | 0.00 | 0.00 | 86 | 1021.9 |
| 20260510070105 | 41 | 277 | 2.0 | 2.0 | 0.00 | 0.00 | 0.00 | 86 | 1021.9 |
| 20260510070005 | 41 | 275 | 1.0 | 2.0 | 0.00 | 0.00 | 0.00 | 86 | 1021.8 |
| 20260510065704 | 41 | 268 | 2.0 | 2.0 | 0.00 | 0.00 | 0.00 | 86 | 1021.9 |
| 20260510065606 | 41 | 279 | 2.0 | 2.0 | 0.00 | 0.00 | 0.00 | 86 | 1021.8 |
| 20260510065519 | 41 | 277 | 2.0 | 2.0 | 0.00 | 0.00 | 0.00 | 86 | 1021.9 |
| 20260510065504 | 41 | 274 | 2.0 | 2.0 | 0.00 | 0.00 | 0.00 | 86 | 1021.9 |
| 20260510065405 | 41 | 269 | 2.0 | 4.0 | 0.00 | 0.00 | 0.00 | 86 | 1021.8 |
| 20260510065214 | 41 | 270 | 1.0 | 4.0 | 0.00 | 0.00 | 0.00 | 86 | 1021.7 |
| 20260510065205 | 41 | 268 | 1.0 | 4.0 | 0.00 | 0.00 | 0.00 | 86 | 1021.7 |
| 20260510065109 | 41 | 263 | 2.0 | 4.0 | 0.00 | 0.00 | 0.00 | 85 | 1021.9 |
| 20260510064904 | 41 | 273 | 1.0 | 4.0 | 0.00 | 0.00 | 0.00 | 85 | 1021.8 |
| 20260510064803 | 42 | 274 | 2.0 | 4.0 | 0.00 | 0.00 | 0.00 | 85 | 1021.9 |
| 20260510064704 | 41 | 268 | 1.0 | 4.0 | 0.00 | 0.00 | 0.00 | 85 | 1022.0 |
| 20260510064605 | 42 | 268 | 2.0 | 4.0 | 0.00 | 0.00 | 0.00 | 85 | 1021.9 |
| 20260510064505 | 42 | 267 | 2.0 | 4.0 | 0.00 | 0.00 | 0.00 | 85 | 1021.8 |
| 20260510064404 | 42 | 266 | 2.0 | 4.0 | 0.00 | 0.00 | 0.00 | 85 | 1021.8 |
| 20260510064303 | 42 | 259 | 2.0 | 4.0 | 0.00 | 0.00 | 0.00 | 85 | 1021.9 |
| 20260510064205 | 42 | 265 | 2.0 | 4.0 | 0.00 | 0.00 | 0.00 | 85 | 1021.8 |
| 20260510064105 | 42 | 271 | 1.0 | 4.0 | 0.00 | 0.00 | 0.00 | 85 | 1021.9 |
| 20260510064006 | 42 | 270 | 1.0 | 4.0 | 0.00 | 0.00 | 0.00 | 85 | 1021.9 |
| 20260510063917 | 42 | 265 | 2.0 | 4.0 | 0.00 | 0.00 | 0.00 | 85 | 1021.6 |
| 20260510063903 | 42 | 264 | 2.0 | 4.0 | 0.00 | 0.00 | 0.00 | 85 | 1021.6 |
| 20260510063803 | 42 | 266 | 2.0 | 4.0 | 0.00 | 0.00 | 0.00 | 85 | 1021.7 |
| 20260510063604 | 42 | 262 | 2.0 | 4.0 | 0.00 | 0.00 | 0.00 | 85 | 1021.7 |
| 20260510063504 | 42 | 263 | 2.0 | 4.0 | 0.00 | 0.00 | 0.00 | 85 | 1021.5 |
| 20260510063403 | 42 | 269 | 2.0 | 4.0 | 0.00 | 0.00 | 0.00 | 85 | 1021.7 |
| 20260510063304 | 42 | 282 | 2.0 | 4.0 | 0.00 | 0.00 | 0.00 | 85 | 1021.8 |
| 20260510063205 | 42 | 282 | 2.0 | 4.0 | 0.00 | 0.00 | 0.00 | 85 | 1021.6 |
| 20260510063103 | 42 | 286 | 2.0 | 4.0 | 0.00 | 0.00 | 0.00 | 84 | 1021.7 |
| 20260510062905 | 42 | 280 | 2.0 | 4.0 | 0.00 | 0.00 | 0.00 | 84 | 1021.7 |
| 20260510062804 | 42 | 272 | 2.0 | 4.0 | 0.00 | 0.00 | 0.00 | 84 | 1021.7 |
| 20260510062705 | 42 | 272 | 2.0 | 4.0 | 0.00 | 0.00 | 0.00 | 84 | 1021.8 |
| 20260510062603 | 42 | 271 | 2.0 | 4.0 | 0.00 | 0.00 | 0.00 | 84 | 1021.8 |
| 20260510062505 | 42 | 276 | 2.0 | 4.0 | 0.00 | 0.00 | 0.00 | 84 | 1021.7 |
| 20260510062403 | 42 | 285 | 2.0 | 4.0 | 0.00 | 0.00 | 0.00 | 84 | 1021.7 |
| 20260510062306 | 42 | 293 | 2.0 | 4.0 | 0.00 | 0.00 | 0.00 | 84 | 1021.7 |
| 20260510062205 | 42 | 296 | 2.0 | 4.0 | 0.00 | 0.00 | 0.00 | 84 | 1021.8 |
| 20260510062106 | 42 | 300 | 2.0 | 4.0 | 0.00 | 0.00 | 0.00 | 84 | 1021.8 |
| 20260510062005 | 42 | 300 | 2.0 | 4.0 | 0.00 | 0.00 | 0.00 | 84 | 1022.1 |
| 20260510061903 | 42 | 302 | 2.0 | 4.0 | 0.00 | 0.00 | 0.00 | 84 | 1021.9 |
| 20260510061817 | 42 | 294 | 2.0 | 4.0 | 0.00 | 0.00 | 0.00 | 83 | 1022.1 |
| 20260510061803 | 42 | 294 | 2.0 | 4.0 | 0.00 | 0.00 | 0.00 | 83 | 1022.2 |
| 20260510061705 | 42 | 292 | 2.0 | 4.0 | 0.00 | 0.00 | 0.00 | 83 | 1022.1 |
| 20260510061503 | 42 | 275 | 2.0 | 4.0 | 0.00 | 0.00 | 0.00 | 83 | 1022.2 |
| 20260510061403 | 42 | 263 | 2.0 | 4.0 | 0.00 | 0.00 | 0.00 | 83 | 1022.0 |
| 20260510061305 | 43 | 260 | 2.0 | 2.0 | 0.00 | 0.00 | 0.00 | 83 | 1022.1 |
| 20260510061203 | 43 | 257 | 2.0 | 2.0 | 0.00 | 0.00 | 0.00 | 83 | 1022.3 |
| 20260510061105 | 43 | 255 | 2.0 | 4.0 | 0.00 | 0.00 | 0.00 | 83 | 1022.4 |
| 20260510061004 | 43 | 255 | 2.0 | 4.0 | 0.00 | 0.00 | 0.00 | 83 | 1022.3 |
| 20260510060907 | 43 | 257 | 2.0 | 4.0 | 0.00 | 0.00 | 0.00 | 82 | 1022.3 |
| 20260510060804 | 43 | 255 | 2.0 | 4.0 | 0.00 | 0.00 | 0.00 | 82 | 1022.4 |
| 20260510060704 | 43 | 252 | 2.0 | 4.0 | 0.00 | 0.00 | 0.00 | 82 | 1022.3 |
| 20260510060603 | 43 | 252 | 2.0 | 4.0 | 0.00 | 0.00 | 0.00 | 82 | 1022.4 |
| 20260510060518 | 43 | 254 | 2.0 | 4.0 | 0.00 | 0.00 | 0.00 | 82 | 1022.3 |
| 20260510060503 | 43 | 253 | 2.0 | 4.0 | 0.00 | 0.00 | 0.00 | 82 | 1022.1 |
| 20260510060417 | 43 | 250 | 2.0 | 4.0 | 0.00 | 0.00 | 0.00 | 82 | 1022.5 |
| 20260510060404 | 43 | 252 | 2.0 | 4.0 | 0.00 | 0.00 | 0.00 | 82 | 1022.5 |
| 20260510060104 | 44 | 261 | 2.0 | 4.0 | 0.00 | 0.00 | 0.00 | 81 | 1022.1 |
| 20260510060006 | 44 | 264 | 2.0 | 2.0 | 0.00 | 0.00 | 0.00 | 81 | 1022.2 |
| 20260510055904 | 44 | 264 | 2.0 | 2.0 | 0.00 | 0.00 | 0.00 | 81 | 1022.1 |
| 20260510055807 | 44 | 262 | 1.0 | 2.0 | 0.00 | 0.00 | 0.00 | 81 | 1022.2 |
| 20260510055704 | 44 | 263 | 1.0 | 2.0 | 0.00 | 0.00 | 0.00 | 81 | 1022.1 |
| 20260510055505 | 44 | 260 | 1.0 | 2.0 | 0.00 | 0.00 | 0.00 | 80 | 1022.2 |
| 20260510055404 | 44 | 261 | 2.0 | 2.0 | 0.00 | 0.00 | 0.00 | 80 | 1022.1 |
| 20260510055317 | 44 | 268 | 2.0 | 2.0 | 0.00 | 0.00 | 0.00 | 80 | 1022.2 |
| 20260510055306 | 44 | 270 | 2.0 | 2.0 | 0.00 | 0.00 | 0.00 | 80 | 1022.2 |
| 20260510055203 | 44 | 272 | 2.0 | 4.0 | 0.00 | 0.00 | 0.00 | 80 | 1021.9 |
| 20260510055004 | 44 | 282 | 2.0 | 4.0 | 0.00 | 0.00 | 0.00 | 80 | 1022.2 |
| 20260510054904 | 44 | 291 | 2.0 | 4.0 | 0.00 | 0.00 | 0.00 | 80 | 1022.2 |
| 20260510054803 | 44 | 287 | 2.0 | 4.0 | 0.00 | 0.00 | 0.00 | 80 | 1022.0 |
| 20260510054703 | 44 | 295 | 2.0 | 4.0 | 0.00 | 0.00 | 0.00 | 79 | 1022.0 |
| 20260510054605 | 44 | 300 | 2.0 | 4.0 | 0.00 | 0.00 | 0.00 | 79 | 1022.1 |
| 20260510054508 | 44 | 307 | 1.0 | 4.0 | 0.00 | 0.00 | 0.00 | 79 | 1021.9 |
| 20260510054405 | 44 | 306 | 2.0 | 4.0 | 0.00 | 0.00 | 0.00 | 79 | 1021.8 |
| 20260510054305 | 44 | 308 | 2.0 | 4.0 | 0.00 | 0.00 | 0.00 | 79 | 1022.0 |
| 20260510054205 | 44 | 305 | 2.0 | 4.0 | 0.00 | 0.00 | 0.00 | 79 | 1022.0 |
| 20260510054105 | 44 | 295 | 3.0 | 4.0 | 0.00 | 0.00 | 0.00 | 79 | 1022.0 |
| 20260510053905 | 44 | 266 | 1.0 | 2.0 | 0.00 | 0.00 | 0.00 | 79 | 1022.4 |
| 20260510053803 | 45 | 270 | 2.0 | 2.0 | 0.00 | 0.00 | 0.00 | 79 | 1022.4 |
| 20260510053705 | 45 | 274 | 2.0 | 2.0 | 0.00 | 0.00 | 0.00 | 79 | 1022.2 |
| 20260510053604 | 45 | 281 | 2.0 | 2.0 | 0.00 | 0.00 | 0.00 | 79 | 1022.4 |
| 20260510053505 | 45 | 288 | 1.0 | 2.0 | 0.00 | 0.00 | 0.00 | 79 | 1022.3 |
| 20260510053403 | 45 | 286 | 1.0 | 2.0 | 0.00 | 0.00 | 0.00 | 79 | 1022.1 |
| 20260510053304 | 45 | 289 | 1.0 | 2.0 | 0.00 | 0.00 | 0.00 | 79 | 1022.3 |
| 20260510053103 | 45 | 287 | 2.0 | 2.0 | 0.00 | 0.00 | 0.00 | 78 | 1022.3 |
| 20260510053003 | 45 | 281 | 2.0 | 2.0 | 0.00 | 0.00 | 0.00 | 78 | 1022.3 |
| 20260510052903 | 45 | 286 | 2.0 | 2.0 | 0.00 | 0.00 | 0.00 | 78 | 1022.3 |
| 20260510052803 | 45 | 284 | 2.0 | 2.0 | 0.00 | 0.00 | 0.00 | 78 | 1022.4 |
| 20260510052704 | 45 | 279 | 1.0 | 2.0 | 0.00 | 0.00 | 0.00 | 78 | 1022.4 |
| 20260510052606 | 45 | 272 | 1.0 | 2.0 | 0.00 | 0.00 | 0.00 | 78 | 1022.3 |
| 20260510052505 | 45 | 272 | 0.0 | 2.0 | 0.00 | 0.00 | 0.00 | 77 | 1022.4 |
| 20260510052416 | 45 | 277 | 0.0 | 2.0 | 0.00 | 0.00 | 0.00 | 77 | 1022.3 |
| 20260510052403 | 45 | 278 | 0.0 | 2.0 | 0.00 | 0.00 | 0.00 | 77 | 1022.3 |
| 20260510052306 | 46 | 277 | 0.0 | 2.0 | 0.00 | 0.00 | 0.00 | 77 | 1022.1 |
| 20260510052103 | 46 | 267 | 0.0 | 2.0 | 0.00 | 0.00 | 0.00 | 77 | 1022.3 |
| 20260510052015 | 46 | 263 | 1.0 | 2.0 | 0.00 | 0.00 | 0.00 | 77 | 1022.3 |
| 20260510052004 | 46 | 260 | 1.0 | 2.0 | 0.00 | 0.00 | 0.00 | 77 | 1022.3 |
| 20260510051905 | 46 | 252 | 1.0 | 2.0 | 0.00 | 0.00 | 0.00 | 77 | 1022.3 |
| 20260510051704 | 46 | 242 | 1.0 | 4.0 | 0.00 | 0.00 | 0.00 | 76 | 1022.2 |
| 20260510051605 | 46 | 245 | 2.0 | 4.0 | 0.00 | 0.00 | 0.00 | 76 | 1022.3 |
| 20260510051504 | 46 | 245 | 2.0 | 4.0 | 0.00 | 0.00 | 0.00 | 76 | 1022.4 |
| 20260510051405 | 46 | 245 | 2.0 | 4.0 | 0.00 | 0.00 | 0.00 | 76 | 1022.4 |
| 20260510051305 | 46 | 248 | 2.0 | 4.0 | 0.00 | 0.00 | 0.00 | 76 | 1022.2 |
| 20260510051203 | 46 | 255 | 2.0 | 4.0 | 0.00 | 0.00 | 0.00 | 76 | 1022.4 |
| 20260510051105 | 46 | 254 | 2.0 | 4.0 | 0.00 | 0.00 | 0.00 | 76 | 1022.1 |
| 20260510051005 | 46 | 255 | 2.0 | 2.0 | 0.00 | 0.00 | 0.00 | 76 | 1022.2 |
| 20260510050905 | 46 | 255 | 1.0 | 2.0 | 0.00 | 0.00 | 0.00 | 76 | 1022.5 |
| 20260510050805 | 46 | 254 | 1.0 | 2.0 | 0.00 | 0.00 | 0.00 | 76 | 1022.4 |
| 20260510050704 | 46 | 257 | 2.0 | 2.0 | 0.00 | 0.00 | 0.00 | 75 | 1022.2 |
| 20260510050604 | 46 | 254 | 2.0 | 4.0 | 0.00 | 0.00 | 0.00 | 75 | 1022.3 |
| 20260510050503 | 46 | 253 | 1.0 | 4.0 | 0.00 | 0.00 | 0.00 | 75 | 1022.3 |
| 20260510050404 | 46 | 254 | 1.0 | 4.0 | 0.00 | 0.00 | 0.00 | 75 | 1022.4 |
| 20260510050304 | 46 | 253 | 2.0 | 4.0 | 0.00 | 0.00 | 0.00 | 75 | 1022.5 |
| 20260510050204 | 46 | 255 | 2.0 | 4.0 | 0.00 | 0.00 | 0.00 | 75 | 1022.2 |
| 20260510050118 | 46 | 253 | 2.0 | 4.0 | 0.00 | 0.00 | 0.00 | 75 | 1022.7 |
| 20260510050104 | 46 | 253 | 3.0 | 4.0 | 0.00 | 0.00 | 0.00 | 75 | 1022.6 |
| 20260510050004 | 46 | 251 | 2.0 | 4.0 | 0.00 | 0.00 | 0.00 | 75 | 1022.4 |
| 20260510045916 | 46 | 249 | 2.0 | 4.0 | 0.00 | 0.00 | 0.00 | 75 | 1022.4 |
| 20260510045803 | 47 | 248 | 2.0 | 4.0 | 0.00 | 0.00 | 0.00 | 75 | 1022.4 |
| 20260510045605 | 47 | 239 | 3.0 | 4.0 | 0.00 | 0.00 | 0.00 | 75 | 1022.4 |
| 20260510045504 | 47 | 240 | 2.0 | 4.0 | 0.00 | 0.00 | 0.00 | 75 | 1022.5 |
| 20260510045404 | 47 | 245 | 2.0 | 4.0 | 0.00 | 0.00 | 0.00 | 74 | 1022.7 |
| 20260510045306 | 47 | 240 | 1.0 | 4.0 | 0.00 | 0.00 | 0.00 | 74 | 1022.5 |
| 20260510045205 | 47 | 238 | 0.0 | 4.0 | 0.00 | 0.00 | 0.00 | 74 | 1022.5 |
| 20260510045104 | 47 | 239 | 2.0 | 4.0 | 0.00 | 0.00 | 0.00 | 74 | 1022.5 |
| 20260510045003 | 47 | 243 | 1.0 | 4.0 | 0.00 | 0.00 | 0.00 | 74 | 1022.8 |
| 20260510044903 | 47 | 244 | 2.0 | 6.0 | 0.00 | 0.00 | 0.00 | 74 | 1022.6 |
| 20260510044805 | 47 | 252 | 2.0 | 6.0 | 0.00 | 0.00 | 0.00 | 74 | 1022.4 |
| 20260510044703 | 47 | 255 | 2.0 | 6.0 | 0.00 | 0.00 | 0.00 | 74 | 1022.6 |
| 20260510044605 | 47 | 257 | 2.0 | 6.0 | 0.00 | 0.00 | 0.00 | 74 | 1022.5 |
| 20260510044506 | 47 | 257 | 2.0 | 6.0 | 0.00 | 0.00 | 0.00 | 73 | 1022.5 |
| 20260510044408 | 47 | 260 | 3.0 | 6.0 | 0.00 | 0.00 | 0.00 | 73 | 1022.5 |
| 20260510044303 | 47 | 258 | 2.0 | 2.0 | 0.00 | 0.00 | 0.00 | 73 | 1022.5 |
| 20260510044103 | 48 | 262 | 1.0 | 4.0 | 0.00 | 0.00 | 0.00 | 72 | 1022.5 |
| 20260510044006 | 48 | 261 | 1.0 | 4.0 | 0.00 | 0.00 | 0.00 | 72 | 1022.7 |
| 20260510043905 | 48 | 261 | 1.0 | 4.0 | 0.00 | 0.00 | 0.00 | 72 | 1022.7 |
| 20260510043803 | 48 | 262 | 2.0 | 4.0 | 0.00 | 0.00 | 0.00 | 72 | 1022.5 |
| 20260510043703 | 48 | 263 | 2.0 | 4.0 | 0.00 | 0.00 | 0.00 | 71 | 1022.4 |
| 20260510043606 | 48 | 255 | 3.0 | 4.0 | 0.00 | 0.00 | 0.00 | 72 | 1022.6 |
| 20260510043503 | 48 | 247 | 2.0 | 4.0 | 0.00 | 0.00 | 0.00 | 71 | 1022.7 |
| 20260510043403 | 48 | 239 | 2.0 | 4.0 | 0.00 | 0.00 | 0.00 | 71 | 1022.7 |
| 20260510043305 | 48 | 230 | 2.0 | 4.0 | 0.00 | 0.00 | 0.00 | 71 | 1022.6 |
| 20260510043203 | 48 | 229 | 2.0 | 4.0 | 0.00 | 0.00 | 0.00 | 71 | 1022.6 |
| 20260510043116 | 48 | 231 | 2.0 | 4.0 | 0.00 | 0.00 | 0.00 | 71 | 1022.8 |
| 20260510043103 | 48 | 233 | 2.0 | 4.0 | 0.00 | 0.00 | 0.00 | 71 | 1022.8 |
| 20260510043003 | 48 | 236 | 2.0 | 4.0 | 0.00 | 0.00 | 0.00 | 71 | 1022.6 |
| 20260510042817 | 48 | 238 | 3.0 | 4.0 | 0.00 | 0.00 | 0.00 | 71 | 1022.5 |
| 20260510042803 | 48 | 240 | 3.0 | 4.0 | 0.00 | 0.00 | 0.00 | 71 | 1022.5 |
| 20260510042703 | 48 | 243 | 3.0 | 4.0 | 0.00 | 0.00 | 0.00 | 71 | 1022.6 |
| 20260510042504 | 48 | 247 | 2.0 | 6.0 | 0.00 | 0.00 | 0.00 | 70 | 1022.8 |
| 20260510042405 | 48 | 248 | 3.0 | 6.0 | 0.00 | 0.00 | 0.00 | 70 | 1022.6 |
| 20260510042306 | 49 | 251 | 2.0 | 6.0 | 0.00 | 0.00 | 0.00 | 70 | 1022.8 |
| 20260510042203 | 49 | 246 | 2.0 | 6.0 | 0.00 | 0.00 | 0.00 | 70 | 1022.7 |
| 20260510042117 | 49 | 249 | 2.0 | 6.0 | 0.00 | 0.00 | 0.00 | 70 | 1022.8 |
| 20260510042004 | 49 | 240 | 3.0 | 6.0 | 0.00 | 0.00 | 0.00 | 70 | 1022.7 |
| 20260510041804 | 49 | 234 | 3.0 | 6.0 | 0.00 | 0.00 | 0.00 | 70 | 1022.7 |
| 20260510041704 | 49 | 235 | 3.0 | 6.0 | 0.00 | 0.00 | 0.00 | 70 | 1022.6 |
| 20260510041636 | 49 | 232 | 3.0 | 6.0 | 0.00 | 0.00 | 0.00 | 70 | 1022.6 |
| 20260510041514 | 49 | 236 | 2.0 | 6.0 | 0.00 | 0.00 | 0.00 | 70 | 1022.9 |
| 20260510041504 | 49 | 233 | 2.0 | 6.0 | 0.00 | 0.00 | 0.00 | 70 | 1022.9 |
| 20260510041405 | 49 | 231 | 2.0 | 6.0 | 0.00 | 0.00 | 0.00 | 70 | 1022.7 |
| 20260510041206 | 49 | 247 | 4.0 | 6.0 | 0.00 | 0.00 | 0.00 | 70 | 1022.5 |
| 20260510041003 | 49 | 239 | 2.0 | 4.0 | 0.00 | 0.00 | 0.00 | 71 | 1022.6 |
| 20260510040917 | 49 | 235 | 2.0 | 4.0 | 0.00 | 0.00 | 0.00 | 71 | 1022.6 |
| 20260510040903 | 49 | 234 | 2.0 | 4.0 | 0.00 | 0.00 | 0.00 | 71 | 1022.6 |
| 20260510040605 | 49 | 240 | 3.0 | 6.0 | 0.00 | 0.00 | 0.00 | 71 | 1022.5 |
| 20260510040503 | 49 | 242 | 2.0 | 6.0 | 0.00 | 0.00 | 0.00 | 71 | 1022.6 |
| 20260510040414 | 49 | 245 | 2.0 | 6.0 | 0.00 | 0.00 | 0.00 | 71 | 1022.6 |
| 20260510040405 | 49 | 246 | 2.0 | 6.0 | 0.00 | 0.00 | 0.00 | 71 | 1022.6 |
| 20260510040303 | 49 | 245 | 3.0 | 6.0 | 0.00 | 0.00 | 0.00 | 70 | 1022.8 |
| 20260510040105 | 49 | 240 | 4.0 | 6.0 | 0.00 | 0.00 | 0.00 | 70 | 1022.4 |
| 20260510040004 | 49 | 236 | 2.0 | 6.0 | 0.00 | 0.00 | 0.00 | 71 | 1022.5 |
| 20260510035904 | 49 | 232 | 2.0 | 4.0 | 0.00 | 0.00 | 0.00 | 71 | 1022.6 |
| 20260510035805 | 49 | 236 | 2.0 | 4.0 | 0.00 | 0.00 | 0.00 | 71 | 1022.3 |
| 20260510035705 | 49 | 237 | 2.0 | 4.0 | 0.00 | 0.00 | 0.00 | 71 | 1022.6 |
| 20260510035604 | 49 | 235 | 2.0 | 4.0 | 0.00 | 0.00 | 0.00 | 70 | 1022.7 |
| 20260510035504 | 49 | 233 | 2.0 | 4.0 | 0.00 | 0.00 | 0.00 | 70 | 1022.7 |
| 20260510035405 | 49 | 233 | 2.0 | 4.0 | 0.00 | 0.00 | 0.00 | 70 | 1022.4 |
| 20260510035306 | 49 | 233 | 3.0 | 4.0 | 0.00 | 0.00 | 0.00 | 70 | 1022.5 |
| 20260510035204 | 50 | 232 | 2.0 | 4.0 | 0.00 | 0.00 | 0.00 | 70 | 1022.5 |
| 20260510035103 | 50 | 227 | 2.0 | 4.0 | 0.00 | 0.00 | 0.00 | 70 | 1022.3 |
| 20260510035005 | 50 | 229 | 2.0 | 4.0 | 0.00 | 0.00 | 0.00 | 70 | 1022.6 |
| 20260510034904 | 50 | 233 | 2.0 | 4.0 | 0.00 | 0.00 | 0.00 | 70 | 1022.6 |
| 20260510034805 | 50 | 231 | 2.0 | 4.0 | 0.00 | 0.00 | 0.00 | 69 | 1022.0 |
| 20260510034703 | 50 | 232 | 2.0 | 4.0 | 0.00 | 0.00 | 0.00 | 69 | 1022.2 |
| 20260510034604 | 50 | 236 | 2.0 | 4.0 | 0.00 | 0.00 | 0.00 | 70 | 1022.6 |
| 20260510034504 | 50 | 233 | 3.0 | 4.0 | 0.00 | 0.00 | 0.00 | 69 | 1022.4 |
| 20260510034404 | 50 | 233 | 3.0 | 4.0 | 0.00 | 0.00 | 0.00 | 69 | 1022.3 |
| 20260510034305 | 50 | 236 | 2.0 | 4.0 | 0.00 | 0.00 | 0.00 | 70 | 1022.4 |
| 20260510034205 | 50 | 236 | 2.0 | 4.0 | 0.00 | 0.00 | 0.00 | 69 | 1022.4 |
| 20260510034104 | 50 | 237 | 2.0 | 4.0 | 0.00 | 0.00 | 0.00 | 69 | 1022.3 |
| 20260510034004 | 50 | 241 | 2.0 | 4.0 | 0.00 | 0.00 | 0.00 | 69 | 1022.5 |
| 20260510033904 | 50 | 241 | 2.0 | 4.0 | 0.00 | 0.00 | 0.00 | 69 | 1022.4 |
| 20260510033804 | 50 | 240 | 2.0 | 4.0 | 0.00 | 0.00 | 0.00 | 69 | 1022.5 |
| 20260510033510 | 50 | 243 | 3.0 | 4.0 | 0.00 | 0.00 | 0.00 | 69 | 1022.5 |
| 20260510033404 | 50 | 242 | 2.0 | 4.0 | 0.00 | 0.00 | 0.00 | 69 | 1022.2 |
| 20260510033303 | 50 | 240 | 2.0 | 7.0 | 0.00 | 0.00 | 0.00 | 69 | 1022.3 |
| 20260510033207 | 50 | 243 | 2.0 | 7.0 | 0.00 | 0.00 | 0.00 | 68 | 1022.5 |
| 20260510033004 | 51 | 234 | 3.0 | 7.0 | 0.00 | 0.00 | 0.00 | 68 | 1022.4 |
| 20260510032903 | 51 | 237 | 3.0 | 7.0 | 0.00 | 0.00 | 0.00 | 68 | 1022.5 |
| 20260510032803 | 51 | 234 | 5.0 | 7.0 | 0.00 | 0.00 | 0.00 | 67 | 1022.4 |
| 20260510032705 | 51 | 230 | 3.0 | 7.0 | 0.00 | 0.00 | 0.00 | 68 | 1022.4 |
| 20260510032605 | 51 | 231 | 3.0 | 7.0 | 0.00 | 0.00 | 0.00 | 68 | 1022.5 |
| 20260510032404 | 51 | 229 | 2.0 | 7.0 | 0.00 | 0.00 | 0.00 | 68 | 1022.3 |
| 20260510032306 | 51 | 232 | 3.0 | 7.0 | 0.00 | 0.00 | 0.00 | 69 | 1022.6 |
| 20260510032203 | 51 | 235 | 3.0 | 7.0 | 0.00 | 0.00 | 0.00 | 69 | 1022.4 |
| 20260510032005 | 51 | 233 | 3.0 | 8.0 | 0.00 | 0.00 | 0.00 | 69 | 1022.3 |
| 20260510031903 | 51 | 246 | 2.0 | 8.0 | 0.00 | 0.00 | 0.00 | 69 | 1022.5 |
| 20260510031804 | 51 | 244 | 2.0 | 8.0 | 0.00 | 0.00 | 0.00 | 68 | 1022.4 |
| 20260510031703 | 51 | 243 | 3.0 | 8.0 | 0.00 | 0.00 | 0.00 | 68 | 1022.7 |
| 20260510031603 | 51 | 245 | 5.0 | 8.0 | 0.00 | 0.00 | 0.00 | 68 | 1022.2 |
| 20260510031516 | 50 | 254 | 4.0 | 7.0 | 0.00 | 0.00 | 0.00 | 69 | 1022.4 |
| 20260510031503 | 50 | 258 | 4.0 | 7.0 | 0.00 | 0.00 | 0.00 | 69 | 1022.4 |
| 20260510031405 | 50 | 234 | 2.0 | 4.0 | 0.00 | 0.00 | 0.00 | 71 | 1022.6 |
| 20260510031205 | 50 | 237 | 2.0 | 6.0 | 0.00 | 0.00 | 0.00 | 71 | 1022.7 |
| 20260510031103 | 51 | 230 | 2.0 | 6.0 | 0.00 | 0.00 | 0.00 | 71 | 1022.7 |
| 20260510030917 | 51 | 229 | 4.0 | 6.0 | 0.00 | 0.00 | 0.00 | 71 | 1022.7 |
| 20260510030905 | 51 | 230 | 4.0 | 6.0 | 0.00 | 0.00 | 0.00 | 71 | 1022.7 |
| 20260510030805 | 51 | 231 | 4.0 | 6.0 | 0.00 | 0.00 | 0.00 | 71 | 1022.9 |
| 20260510030714 | 51 | 229 | 2.0 | 6.0 | 0.00 | 0.00 | 0.00 | 71 | 1022.6 |
| 20260510030605 | 51 | 233 | 2.0 | 6.0 | 0.00 | 0.00 | 0.00 | 71 | 1022.8 |
| 20260510030305 | 51 | 248 | 3.0 | 6.0 | 0.00 | 0.00 | 0.00 | 71 | 1022.8 |
| 20260510030204 | 51 | 250 | 3.0 | 6.0 | 0.00 | 0.00 | 0.00 | 72 | 1022.8 |
| 20260510030104 | 51 | 250 | 3.0 | 6.0 | 0.00 | 0.00 | 0.00 | 72 | 1022.7 |
| 20260510030015 | 51 | 253 | 2.0 | 6.0 | 0.00 | 0.00 | 0.00 | 72 | 1022.8 |
| 20260510030006 | 51 | 255 | 2.0 | 6.0 | 0.00 | 0.00 | 0.00 | 72 | 1022.8 |
| 20260510025904 | 51 | 252 | 2.0 | 6.0 | 0.00 | 0.00 | 0.00 | 72 | 1022.7 |
| 20260510025704 | 51 | 250 | 4.0 | 6.0 | 0.00 | 0.00 | 0.00 | 72 | 1022.7 |
| 20260510025604 | 51 | 250 | 3.0 | 6.0 | 0.00 | 0.00 | 0.00 | 72 | 1022.8 |
| 20260510025505 | 51 | 244 | 2.0 | 7.0 | 0.00 | 0.00 | 0.00 | 73 | 1022.8 |
| 20260510025416 | 51 | 239 | 4.0 | 7.0 | 0.00 | 0.00 | 0.00 | 73 | 1022.5 |
| 20260510025404 | 51 | 238 | 4.0 | 7.0 | 0.00 | 0.00 | 0.00 | 73 | 1022.5 |
| 20260510025306 | 51 | 232 | 3.0 | 7.0 | 0.00 | 0.00 | 0.00 | 73 | 1022.8 |
| 20260510025104 | 51 | 233 | 2.0 | 7.0 | 0.00 | 0.00 | 0.00 | 73 | 1022.7 |
| 20260510025004 | 51 | 231 | 4.0 | 7.0 | 0.00 | 0.00 | 0.00 | 72 | 1022.7 |
| 20260510024905 | 51 | 231 | 2.0 | 8.0 | 0.00 | 0.00 | 0.00 | 73 | 1022.9 |
| 20260510024805 | 51 | 236 | 2.0 | 8.0 | 0.00 | 0.00 | 0.00 | 73 | 1022.8 |
| 20260510024704 | 51 | 238 | 2.0 | 8.0 | 0.00 | 0.00 | 0.00 | 73 | 1022.9 |
| 20260510024603 | 51 | 232 | 3.0 | 8.0 | 0.00 | 0.00 | 0.00 | 72 | 1023.0 |
| 20260510024507 | 51 | 233 | 4.0 | 8.0 | 0.00 | 0.00 | 0.00 | 72 | 1022.9 |
| 20260510024403 | 51 | 230 | 3.0 | 8.0 | 0.00 | 0.00 | 0.00 | 73 | 1022.9 |
| 20260510024305 | 51 | 230 | 2.0 | 7.0 | 0.00 | 0.00 | 0.00 | 73 | 1022.9 |
| 20260510024204 | 51 | 228 | 2.0 | 7.0 | 0.00 | 0.00 | 0.00 | 73 | 1022.8 |
| 20260510024118 | 51 | 225 | 3.0 | 7.0 | 0.00 | 0.00 | 0.00 | 73 | 1022.9 |
| 20260510024005 | 50 | 231 | 4.0 | 7.0 | 0.00 | 0.00 | 0.00 | 74 | 1022.9 |
| 20260510023804 | 51 | 243 | 4.0 | 7.0 | 0.00 | 0.00 | 0.00 | 74 | 1022.8 |
| 20260510023717 | 51 | 240 | 4.0 | 6.0 | 0.00 | 0.00 | 0.00 | 74 | 1022.7 |
| 20260510023704 | 51 | 244 | 4.0 | 6.0 | 0.00 | 0.00 | 0.00 | 74 | 1022.7 |
| 20260510023514 | 51 | 255 | 3.0 | 4.0 | 0.00 | 0.00 | 0.00 | 75 | 1022.9 |
| 20260510023403 | 51 | 254 | 2.0 | 4.0 | 0.00 | 0.00 | 0.00 | 75 | 1022.8 |
| 20260510023204 | 51 | 250 | 3.0 | 4.0 | 0.00 | 0.00 | 0.00 | 75 | 1023.0 |
| 20260510023105 | 51 | 243 | 4.0 | 4.0 | 0.00 | 0.00 | 0.00 | 75 | 1022.8 |
| 20260510023003 | 51 | 242 | 1.0 | 4.0 | 0.00 | 0.00 | 0.00 | 75 | 1022.6 |
| 20260510022903 | 51 | 247 | 2.0 | 4.0 | 0.00 | 0.00 | 0.00 | 74 | 1022.6 |
| 20260510022803 | 51 | 251 | 2.0 | 4.0 | 0.00 | 0.00 | 0.00 | 74 | 1022.7 |
| 20260510022705 | 51 | 241 | 3.0 | 4.0 | 0.00 | 0.00 | 0.00 | 74 | 1022.7 |
| 20260510022605 | 51 | 241 | 3.0 | 6.0 | 0.00 | 0.00 | 0.00 | 74 | 1022.9 |
| 20260510022515 | 51 | 235 | 2.0 | 6.0 | 0.00 | 0.00 | 0.00 | 74 | 1023.0 |
| 20260510022503 | 51 | 233 | 2.0 | 6.0 | 0.00 | 0.00 | 0.00 | 74 | 1023.0 |
| 20260510022405 | 51 | 227 | 2.0 | 6.0 | 0.00 | 0.00 | 0.00 | 74 | 1022.7 |
| 20260510022204 | 51 | 228 | 3.0 | 6.0 | 0.00 | 0.00 | 0.00 | 74 | 1022.9 |
| 20260510022103 | 51 | 222 | 2.0 | 6.0 | 0.00 | 0.00 | 0.00 | 74 | 1022.8 |
| 20260510022005 | 51 | 226 | 2.0 | 6.0 | 0.00 | 0.00 | 0.00 | 74 | 1022.7 |
| 20260510021903 | 51 | 229 | 2.0 | 6.0 | 0.00 | 0.00 | 0.00 | 73 | 1022.8 |
| 20260510021804 | 51 | 234 | 2.0 | 4.0 | 0.00 | 0.00 | 0.00 | 73 | 1022.7 |
| 20260510021703 | 51 | 233 | 3.0 | 7.0 | 0.00 | 0.00 | 0.00 | 73 | 1022.7 |
| 20260510021603 | 51 | 235 | 2.0 | 7.0 | 0.00 | 0.00 | 0.00 | 73 | 1023.0 |
| 20260510021516 | 51 | 234 | 2.0 | 7.0 | 0.00 | 0.00 | 0.00 | 73 | 1022.7 |
| 20260510021503 | 51 | 233 | 2.0 | 7.0 | 0.00 | 0.00 | 0.00 | 73 | 1022.7 |
| 20260510021404 | 51 | 233 | 2.0 | 7.0 | 0.00 | 0.00 | 0.00 | 72 | 1022.8 |
| 20260510021203 | 51 | 241 | 4.0 | 7.0 | 0.00 | 0.00 | 0.00 | 72 | 1022.6 |
| 20260510021104 | 51 | 242 | 2.0 | 6.0 | 0.00 | 0.00 | 0.00 | 72 | 1022.8 |
| 20260510021004 | 51 | 251 | 3.0 | 6.0 | 0.00 | 0.00 | 0.00 | 72 | 1022.8 |
| 20260510020904 | 51 | 252 | 2.0 | 4.0 | 0.00 | 0.00 | 0.00 | 72 | 1022.9 |
| 20260510020816 | 51 | 238 | 2.0 | 4.0 | 0.00 | 0.00 | 0.00 | 72 | 1022.4 |
| 20260510020807 | 51 | 240 | 2.0 | 4.0 | 0.00 | 0.00 | 0.00 | 72 | 1022.4 |
| 20260510020705 | 51 | 229 | 2.0 | 6.0 | 0.00 | 0.00 | 0.00 | 72 | 1022.8 |
| 20260510020504 | 51 | 227 | 1.0 | 6.0 | 0.00 | 0.00 | 0.00 | 71 | 1023.0 |
| 20260510020404 | 51 | 227 | 2.0 | 6.0 | 0.00 | 0.00 | 0.00 | 71 | 1022.7 |
| 20260510020204 | 51 | 229 | 2.0 | 6.0 | 0.00 | 0.00 | 0.00 | 71 | 1022.6 |
| 20260510020105 | 51 | 228 | 3.0 | 6.0 | 0.00 | 0.00 | 0.00 | 71 | 1022.6 |
| 20260510020006 | 51 | 227 | 2.0 | 6.0 | 0.00 | 0.00 | 0.00 | 71 | 1022.6 |
| 20260510015904 | 51 | 230 | 2.0 | 6.0 | 0.00 | 0.00 | 0.00 | 71 | 1022.8 |
| 20260510015804 | 51 | 233 | 2.0 | 6.0 | 0.00 | 0.00 | 0.00 | 71 | 1023.0 |
| 20260510015704 | 51 | 238 | 4.0 | 6.0 | 0.00 | 0.00 | 0.00 | 71 | 1022.7 |
| 20260510015604 | 51 | 244 | 2.0 | 6.0 | 0.00 | 0.00 | 0.00 | 71 | 1022.8 |
| 20260510015509 | 51 | 245 | 2.0 | 6.0 | 0.00 | 0.00 | 0.00 | 71 | 1022.6 |
| 20260510015405 | 51 | 244 | 2.0 | 6.0 | 0.00 | 0.00 | 0.00 | 71 | 1022.7 |
| 20260510015205 | 51 | 243 | 2.0 | 6.0 | 0.00 | 0.00 | 0.00 | 71 | 1022.6 |
| 20260510015105 | 51 | 243 | 2.0 | 4.0 | 0.00 | 0.00 | 0.00 | 71 | 1022.6 |
| 20260510015003 | 51 | 241 | 3.0 | 4.0 | 0.00 | 0.00 | 0.00 | 71 | 1022.6 |
| 20260510014906 | 51 | 236 | 2.0 | 4.0 | 0.00 | 0.00 | 0.00 | 71 | 1022.7 |
| 20260510014805 | 51 | 234 | 1.0 | 4.0 | 0.00 | 0.00 | 0.00 | 71 | 1022.5 |
| 20260510014604 | 51 | 228 | 2.0 | 7.0 | 0.00 | 0.00 | 0.00 | 70 | 1022.6 |
| 20260510014504 | 51 | 231 | 2.0 | 7.0 | 0.00 | 0.00 | 0.00 | 70 | 1022.8 |
| 20260510014404 | 51 | 232 | 3.0 | 7.0 | 0.00 | 0.00 | 0.00 | 70 | 1022.7 |
| 20260510014303 | 51 | 235 | 3.0 | 7.0 | 0.00 | 0.00 | 0.00 | 70 | 1022.5 |
| 20260510014204 | 51 | 239 | 2.0 | 7.0 | 0.00 | 0.00 | 0.00 | 69 | 1022.6 |
| 20260510014103 | 51 | 239 | 4.0 | 7.0 | 0.00 | 0.00 | 0.00 | 69 | 1022.8 |
| 20260510014006 | 51 | 241 | 3.0 | 7.0 | 0.00 | 0.00 | 0.00 | 69 | 1022.8 |
| 20260510013904 | 51 | 248 | 3.0 | 7.0 | 0.00 | 0.00 | 0.00 | 69 | 1023.0 |
| 20260510013805 | 51 | 253 | 4.0 | 7.0 | 0.00 | 0.00 | 0.00 | 68 | 1022.7 |
| 20260510013603 | 51 | 266 | 2.0 | 7.0 | 0.00 | 0.00 | 0.00 | 68 | 1022.4 |
| 20260510013506 | 51 | 255 | 2.0 | 7.0 | 0.00 | 0.00 | 0.00 | 68 | 1022.7 |
| 20260510013403 | 51 | 244 | 3.0 | 6.0 | 0.00 | 0.00 | 0.00 | 67 | 1022.8 |
| 20260510013303 | 51 | 235 | 2.0 | 6.0 | 0.00 | 0.00 | 0.00 | 67 | 1022.6 |
| 20260510013203 | 51 | 231 | 3.0 | 6.0 | 0.00 | 0.00 | 0.00 | 67 | 1022.6 |
| 20260510013104 | 51 | 227 | 3.0 | 6.0 | 0.00 | 0.00 | 0.00 | 67 | 1022.4 |
| 20260510013005 | 51 | 232 | 3.0 | 6.0 | 0.00 | 0.00 | 0.00 | 66 | 1022.3 |
| 20260510012905 | 51 | 235 | 2.0 | 6.0 | 0.00 | 0.00 | 0.00 | 66 | 1022.3 |
| 20260510012805 | 51 | 240 | 2.0 | 6.0 | 0.00 | 0.00 | 0.00 | 66 | 1022.5 |
| 20260510012703 | 51 | 237 | 3.0 | 6.0 | 0.00 | 0.00 | 0.00 | 66 | 1022.6 |
| 20260510012604 | 51 | 230 | 2.0 | 8.0 | 0.00 | 0.00 | 0.00 | 66 | 1022.5 |
| 20260510012516 | 51 | 229 | 4.0 | 8.0 | 0.00 | 0.00 | 0.00 | 65 | 1022.7 |
| 20260510012504 | 51 | 230 | 4.0 | 8.0 | 0.00 | 0.00 | 0.00 | 65 | 1022.7 |
| 20260510012405 | 51 | 230 | 3.0 | 8.0 | 0.00 | 0.00 | 0.00 | 65 | 1022.6 |
| 20260510012204 | 51 | 232 | 5.0 | 11.0 | 0.00 | 0.00 | 0.00 | 65 | 1022.4 |
| 20260510012103 | 51 | 240 | 4.0 | 11.0 | 0.00 | 0.00 | 0.00 | 65 | 1022.3 |
| 20260510012004 | 51 | 240 | 3.0 | 11.0 | 0.00 | 0.00 | 0.00 | 66 | 1022.4 |
| 20260510011903 | 51 | 240 | 3.0 | 11.0 | 0.00 | 0.00 | 0.00 | 66 | 1022.5 |
| 20260510011816 | 51 | 241 | 3.0 | 11.0 | 0.00 | 0.00 | 0.00 | 65 | 1022.5 |
| 20260510011803 | 51 | 242 | 3.0 | 11.0 | 0.00 | 0.00 | 0.00 | 65 | 1022.3 |
| 20260510011705 | 51 | 247 | 4.0 | 11.0 | 0.00 | 0.00 | 0.00 | 65 | 1022.5 |
| 20260510011505 | 51 | 246 | 3.0 | 8.0 | 0.00 | 0.00 | 0.00 | 66 | 1022.3 |
| 20260510011404 | 51 | 248 | 4.0 | 8.0 | 0.00 | 0.00 | 0.00 | 66 | 1022.4 |
| 20260510011304 | 51 | 243 | 2.0 | 8.0 | 0.00 | 0.00 | 0.00 | 67 | 1022.3 |
| 20260510011206 | 51 | 234 | 2.0 | 8.0 | 0.00 | 0.00 | 0.00 | 67 | 1022.5 |
| 20260510011104 | 51 | 234 | 3.0 | 8.0 | 0.00 | 0.00 | 0.00 | 67 | 1022.2 |
| 20260510011005 | 51 | 237 | 2.0 | 8.0 | 0.00 | 0.00 | 0.00 | 67 | 1022.5 |
| 20260510010905 | 51 | 232 | 2.0 | 8.0 | 0.00 | 0.00 | 0.00 | 67 | 1022.4 |
| 20260510010803 | 51 | 232 | 3.0 | 8.0 | 0.00 | 0.00 | 0.00 | 67 | 1022.3 |
| 20260510010604 | 51 | 231 | 4.0 | 8.0 | 0.00 | 0.00 | 0.00 | 66 | 1022.3 |
| 20260510010504 | 51 | 237 | 4.0 | 8.0 | 0.00 | 0.00 | 0.00 | 66 | 1022.4 |
| 20260510010404 | 51 | 239 | 3.0 | 11.0 | 0.00 | 0.00 | 0.00 | 66 | 1022.5 |
| 20260510010305 | 52 | 242 | 4.0 | 11.0 | 0.00 | 0.00 | 0.00 | 65 | 1022.3 |
| 20260510010205 | 52 | 234 | 3.0 | 11.0 | 0.00 | 0.00 | 0.00 | 65 | 1022.2 |
| 20260510010103 | 52 | 232 | 4.0 | 11.0 | 0.00 | 0.00 | 0.00 | 64 | 1022.3 |
| 20260510010016 | 52 | 225 | 5.0 | 11.0 | 0.00 | 0.00 | 0.00 | 64 | 1022.2 |
| 20260510010004 | 52 | 222 | 5.0 | 11.0 | 0.00 | 0.00 | 0.00 | 64 | 1022.2 |
| 20260510005903 | 52 | 223 | 6.0 | 11.0 | 0.00 | 0.00 | 0.00 | 64 | 1022.3 |
| 20260510005704 | 52 | 246 | 3.0 | 9.0 | 0.00 | 0.00 | 0.00 | 65 | 1022.2 |
| 20260510005605 | 52 | 252 | 4.0 | 9.0 | 0.00 | 0.00 | 0.00 | 66 | 1022.2 |
| 20260510005504 | 51 | 256 | 4.0 | 9.0 | 0.00 | 0.00 | 0.00 | 66 | 1022.5 |
| 20260510005417 | 51 | 271 | 4.0 | 9.0 | 0.00 | 0.00 | 0.00 | 67 | 1022.2 |
| 20260510005405 | 51 | 266 | 4.0 | 9.0 | 0.00 | 0.00 | 0.00 | 68 | 1022.4 |
| 20260510005308 | 51 | 208 | 4.0 | 9.0 | 0.00 | 0.00 | 0.00 | 69 | 1022.1 |
| 20260510005103 | 51 | 220 | 2.0 | 11.0 | 0.00 | 0.00 | 0.00 | 69 | 1022.3 |
| 20260510005004 | 51 | 221 | 2.0 | 13.0 | 0.00 | 0.00 | 0.00 | 69 | 1022.3 |
| 20260510004904 | 51 | 219 | 4.0 | 13.0 | 0.00 | 0.00 | 0.00 | 69 | 1022.4 |
| 20260510004805 | 51 | 221 | 4.0 | 13.0 | 0.00 | 0.00 | 0.00 | 69 | 1022.1 |
| 20260510004704 | 51 | 219 | 6.0 | 13.0 | 0.00 | 0.00 | 0.00 | 69 | 1022.4 |
| 20260510004621 | 51 | 215 | 4.0 | 13.0 | 0.00 | 0.00 | 0.00 | 70 | 1022.2 |
| 20260510004606 | 51 | 215 | 5.0 | 13.0 | 0.00 | 0.00 | 0.00 | 71 | 1022.4 |
| 20260510004515 | 51 | 214 | 2.0 | 9.0 | 0.00 | 0.00 | 0.00 | 71 | 1022.3 |
| 20260510004503 | 51 | 215 | 2.0 | 9.0 | 0.00 | 0.00 | 0.00 | 71 | 1022.3 |
| 20260510004413 | 51 | 218 | 3.0 | 9.0 | 0.00 | 0.00 | 0.00 | 71 | 1022.4 |
| 20260510004103 | 51 | 250 | 4.0 | 9.0 | 0.00 | 0.00 | 0.00 | 72 | 1022.1 |
| 20260510004004 | 51 | 252 | 2.0 | 7.0 | 0.00 | 0.00 | 0.00 | 72 | 1022.3 |
| 20260510003903 | 51 | 251 | 4.0 | 7.0 | 0.00 | 0.00 | 0.00 | 72 | 1022.2 |
| 20260510003805 | 51 | 245 | 2.0 | 9.0 | 0.00 | 0.00 | 0.00 | 73 | 1022.4 |
| 20260510003704 | 51 | 240 | 3.0 | 9.0 | 0.00 | 0.00 | 0.00 | 73 | 1022.3 |
| 20260510003603 | 51 | 238 | 3.0 | 9.0 | 0.00 | 0.00 | 0.00 | 73 | 1022.4 |
| 20260510003507 | 51 | 235 | 2.0 | 9.0 | 0.00 | 0.00 | 0.00 | 73 | 1022.3 |
| 20260510003403 | 51 | 232 | 2.0 | 9.0 | 0.00 | 0.00 | 0.00 | 73 | 1022.2 |
| 20260510003303 | 51 | 234 | 6.0 | 9.0 | 0.00 | 0.00 | 0.00 | 73 | 1022.3 |
| 20260510003203 | 51 | 231 | 3.0 | 8.0 | 0.00 | 0.00 | 0.00 | 73 | 1022.3 |
| 20260510003104 | 51 | 228 | 3.0 | 8.0 | 0.00 | 0.00 | 0.00 | 73 | 1022.1 |
| 20260510003007 | 51 | 231 | 3.0 | 8.0 | 0.00 | 0.00 | 0.00 | 73 | 1022.4 |
| 20260510002804 | 51 | 249 | 4.0 | 9.0 | 0.00 | 0.00 | 0.00 | 73 | 1022.2 |
| 20260510002714 | 51 | 249 | 4.0 | 9.0 | 0.00 | 0.00 | 0.00 | 73 | 1022.2 |
| 20260510002703 | 51 | 251 | 3.0 | 9.0 | 0.00 | 0.00 | 0.00 | 74 | 1022.1 |
| 20260510002604 | 51 | 253 | 2.0 | 9.0 | 0.00 | 0.00 | 0.00 | 74 | 1022.1 |
| 20260510002404 | 51 | 249 | 6.0 | 11.0 | 0.00 | 0.00 | 0.00 | 74 | 1022.2 |
| 20260510002307 | 51 | 241 | 6.0 | 11.0 | 0.00 | 0.00 | 0.00 | 74 | 1022.2 |
| 20260510002205 | 51 | 238 | 2.0 | 11.0 | 0.00 | 0.00 | 0.00 | 74 | 1022.0 |
| 20260510002103 | 51 | 238 | 4.0 | 11.0 | 0.00 | 0.00 | 0.00 | 74 | 1021.9 |
| 20260510002005 | 51 | 234 | 5.0 | 11.0 | 0.00 | 0.00 | 0.00 | 74 | 1022.1 |
| 20260510001905 | 51 | 233 | 6.0 | 11.0 | 0.00 | 0.00 | 0.00 | 75 | 1022.0 |
| 20260510001804 | 51 | 235 | 5.0 | 9.0 | 0.00 | 0.00 | 0.00 | 75 | 1022.0 |
| 20260510001704 | 51 | 241 | 5.0 | 9.0 | 0.00 | 0.00 | 0.00 | 75 | 1022.2 |
| 20260510001604 | 51 | 241 | 4.0 | 8.0 | 0.00 | 0.00 | 0.00 | 76 | 1021.9 |
| 20260510001506 | 51 | 245 | 4.0 | 8.0 | 0.00 | 0.00 | 0.00 | 76 | 1022.0 |
| 20260510001404 | 51 | 245 | 2.0 | 8.0 | 0.00 | 0.00 | 0.00 | 76 | 1022.0 |
| 20260510001304 | 51 | 238 | 2.0 | 8.0 | 0.00 | 0.00 | 0.00 | 76 | 1022.1 |
| 20260510001205 | 51 | 236 | 2.0 | 8.0 | 0.00 | 0.00 | 0.00 | 76 | 1022.0 |
| 20260510001106 | 51 | 233 | 4.0 | 8.0 | 0.00 | 0.00 | 0.00 | 76 | 1021.8 |
| 20260510001004 | 51 | 228 | 4.0 | 8.0 | 0.00 | 0.00 | 0.00 | 77 | 1021.9 |
| 20260510000804 | 51 | 234 | 5.0 | 8.0 | 0.00 | 0.00 | 0.00 | 77 | 1022.0 |
| 20260510000704 | 51 | 227 | 3.0 | 7.0 | 0.00 | 0.00 | 0.00 | 78 | 1022.0 |
| 20260510000606 | 51 | 219 | 2.0 | 7.0 | 0.00 | 0.00 | 0.00 | 78 | 1021.9 |
| 20260510000503 | 51 | 223 | 3.0 | 7.0 | 0.00 | 0.00 | 0.00 | 78 | 1022.1 |
| 20260510000404 | 51 | 226 | 4.0 | 7.0 | 0.00 | 0.00 | 0.00 | 78 | 1021.9 |
| 20260510000304 | 50 | 217 | 4.0 | 7.0 | 0.00 | 0.00 | 0.00 | 78 | 1021.9 |
| 20260510000204 | 50 | 237 | 4.0 | 6.0 | 0.00 | 0.00 | 0.00 | 79 | 1021.8 |
| 20260510000113 | 50 | 252 | 3.0 | 8.0 | 0.00 | 0.00 | 0.00 | 79 | 1021.9 |
| 20260510000104 | 50 | 253 | 3.0 | 8.0 | 0.00 | 0.00 | 0.00 | 79 | 1021.9 |
| 20260510000017 | 50 | 247 | 3.0 | 8.0 | 0.00 | 0.00 | 0.00 | 79 | 1021.9 |
| 20260510000004 | 50 | 244 | 3.0 | 8.0 | 0.00 | 0.00 | 0.00 | 79 | 1021.9 |
| 20260509235915 | 50 | 234 | 4.0 | 8.0 | 0.00 | 0.00 | 0.00 | 79 | 1021.7 |
| 20260509235717 | 50 | 228 | 3.0 | 11.0 | 0.00 | 0.00 | 0.00 | 79 | 1021.9 |
| 20260509235606 | 50 | 217 | 6.0 | 11.0 | 0.00 | 0.00 | 0.00 | 79 | 1021.7 |
| 20260509235403 | 50 | 227 | 3.0 | 11.0 | 0.00 | 0.00 | 0.00 | 79 | 1021.8 |
| 20260509235317 | 50 | 226 | 5.0 | 11.0 | 0.00 | 0.00 | 0.00 | 79 | 1021.6 |
| 20260509235306 | 50 | 227 | 5.0 | 11.0 | 0.00 | 0.00 | 0.00 | 79 | 1021.6 |
| 20260509235205 | 50 | 235 | 8.0 | 11.0 | 0.00 | 0.00 | 0.00 | 79 | 1021.8 |
| 20260509235003 | 50 | 245 | 3.0 | 7.0 | 0.00 | 0.00 | 0.00 | 79 | 1021.6 |
| 20260509234916 | 50 | 248 | 2.0 | 7.0 | 0.00 | 0.00 | 0.00 | 79 | 1021.6 |
| 20260509234903 | 50 | 247 | 2.0 | 7.0 | 0.00 | 0.00 | 0.00 | 79 | 1021.6 |
| 20260509234815 | 50 | 242 | 2.0 | 7.0 | 0.00 | 0.00 | 0.00 | 79 | 1021.6 |
| 20260509234804 | 50 | 240 | 2.0 | 7.0 | 0.00 | 0.00 | 0.00 | 79 | 1021.6 |
| 20260509234617 | 50 | 228 | 3.0 | 7.0 | 0.00 | 0.00 | 0.00 | 79 | 1021.7 |
| 20260509234508 | 50 | 214 | 3.0 | 7.0 | 0.00 | 0.00 | 0.00 | 79 | 1021.5 |
| 20260509234304 | 50 | 209 | 3.0 | 8.0 | 0.00 | 0.00 | 0.00 | 79 | 1021.5 |
| 20260509234216 | 50 | 212 | 2.0 | 8.0 | 0.00 | 0.00 | 0.00 | 79 | 1021.6 |
| 20260509234205 | 50 | 216 | 3.0 | 8.0 | 0.00 | 0.00 | 0.00 | 79 | 1021.5 |
| 20260509234103 | 50 | 224 | 3.0 | 9.0 | 0.00 | 0.00 | 0.00 | 79 | 1021.3 |
| 20260509234013 | 50 | 229 | 3.0 | 9.0 | 0.00 | 0.00 | 0.00 | 79 | 1021.5 |
| 20260509233903 | 50 | 226 | 5.0 | 11.0 | 0.00 | 0.00 | 0.00 | 79 | 1021.2 |
| 20260509233714 | 50 | 243 | 4.0 | 11.0 | 0.00 | 0.00 | 0.00 | 79 | 1021.4 |
| 20260509233704 | 50 | 241 | 4.0 | 11.0 | 0.00 | 0.00 | 0.00 | 79 | 1021.4 |
| 20260509233604 | 50 | 241 | 5.0 | 11.0 | 0.00 | 0.00 | 0.00 | 79 | 1021.4 |
| 20260509233516 | 50 | 241 | 4.0 | 11.0 | 0.00 | 0.00 | 0.00 | 79 | 1021.4 |
| 20260509233404 | 50 | 242 | 6.0 | 11.0 | 0.00 | 0.00 | 0.00 | 79 | 1021.4 |
| 20260509233203 | 50 | 244 | 4.0 | 7.0 | 0.00 | 0.00 | 0.00 | 79 | 1021.4 |
| 20260509233105 | 50 | 244 | 3.0 | 7.0 | 0.00 | 0.00 | 0.00 | 79 | 1021.0 |
| 20260509233005 | 50 | 243 | 4.0 | 7.0 | 0.00 | 0.00 | 0.00 | 79 | 1021.4 |
| 20260509232904 | 50 | 250 | 4.0 | 7.0 | 0.00 | 0.00 | 0.00 | 80 | 1021.1 |
| 20260509232707 | 50 | 247 | 4.0 | 6.0 | 0.00 | 0.00 | 0.00 | 80 | 1021.2 |
| 20260509232604 | 50 | 243 | 4.0 | 6.0 | 0.00 | 0.00 | 0.00 | 80 | 1021.2 |
| 20260509232517 | 50 | 241 | 2.0 | 4.0 | 0.00 | 0.00 | 0.00 | 80 | 1021.1 |
| 20260509232504 | 50 | 243 | 2.0 | 4.0 | 0.00 | 0.00 | 0.00 | 80 | 1021.1 |
| 20260509232204 | 50 | 243 | 3.0 | 8.0 | 0.00 | 0.00 | 0.00 | 80 | 1021.0 |
| 20260509232103 | 50 | 247 | 2.0 | 8.0 | 0.00 | 0.00 | 0.00 | 80 | 1021.2 |
| 20260509232004 | 50 | 247 | 2.0 | 8.0 | 0.00 | 0.00 | 0.00 | 79 | 1021.1 |
| 20260509231906 | 50 | 247 | 5.0 | 8.0 | 0.00 | 0.00 | 0.00 | 80 | 1021.4 |
| 20260509231804 | 50 | 247 | 2.0 | 7.0 | 0.00 | 0.00 | 0.00 | 80 | 1021.0 |
| 20260509231704 | 50 | 236 | 3.0 | 7.0 | 0.00 | 0.00 | 0.00 | 79 | 1021.1 |
| 20260509231603 | 50 | 238 | 3.0 | 7.0 | 0.00 | 0.00 | 0.00 | 79 | 1021.1 |
| 20260509231504 | 50 | 237 | 4.0 | 7.0 | 0.00 | 0.00 | 0.00 | 80 | 1021.1 |
| 20260509231404 | 50 | 241 | 4.0 | 7.0 | 0.00 | 0.00 | 0.00 | 80 | 1021.1 |
| 20260509231304 | 50 | 241 | 4.0 | 7.0 | 0.00 | 0.00 | 0.00 | 80 | 1021.0 |
| 20260509231219 | 50 | 244 | 4.0 | 7.0 | 0.00 | 0.00 | 0.00 | 80 | 1021.0 |
| 20260509231205 | 50 | 245 | 4.0 | 7.0 | 0.00 | 0.00 | 0.00 | 80 | 1021.0 |
| 20260509231104 | 50 | 239 | 2.0 | 7.0 | 0.00 | 0.00 | 0.00 | 80 | 1020.9 |
| 20260509230903 | 50 | 239 | 4.0 | 7.0 | 0.00 | 0.00 | 0.00 | 79 | 1021.0 |
| 20260509230805 | 50 | 247 | 4.0 | 7.0 | 0.00 | 0.00 | 0.00 | 79 | 1020.9 |
| 20260509230703 | 50 | 245 | 2.0 | 7.0 | 0.00 | 0.00 | 0.00 | 79 | 1021.1 |
| 20260509230604 | 50 | 240 | 3.0 | 7.0 | 0.00 | 0.00 | 0.00 | 79 | 1020.9 |
| 20260509230505 | 50 | 241 | 3.0 | 7.0 | 0.00 | 0.00 | 0.00 | 79 | 1020.9 |
| 20260509230405 | 50 | 239 | 4.0 | 8.0 | 0.00 | 0.00 | 0.00 | 79 | 1020.9 |
| 20260509230303 | 50 | 238 | 4.0 | 8.0 | 0.00 | 0.00 | 0.00 | 79 | 1021.0 |
| 20260509230204 | 50 | 242 | 4.0 | 8.0 | 0.00 | 0.00 | 0.00 | 79 | 1020.8 |
| 20260509230103 | 50 | 252 | 4.0 | 8.0 | 0.00 | 0.00 | 0.00 | 79 | 1021.0 |
| 20260509230006 | 51 | 251 | 4.0 | 8.0 | 0.00 | 0.00 | 0.00 | 79 | 1021.1 |
| 20260509225904 | 51 | 251 | 4.0 | 8.0 | 0.00 | 0.00 | 0.00 | 79 | 1021.1 |
| 20260509225803 | 51 | 251 | 5.0 | 7.0 | 0.00 | 0.00 | 0.00 | 79 | 1021.2 |
| 20260509225704 | 51 | 250 | 3.0 | 7.0 | 0.00 | 0.00 | 0.00 | 79 | 1020.9 |
| 20260509225605 | 51 | 245 | 3.0 | 7.0 | 0.00 | 0.00 | 0.00 | 79 | 1020.8 |
| 20260509225503 | 51 | 241 | 2.0 | 7.0 | 0.00 | 0.00 | 0.00 | 79 | 1020.8 |
| 20260509225404 | 51 | 238 | 4.0 | 7.0 | 0.00 | 0.00 | 0.00 | 78 | 1020.8 |
| 20260509225306 | 51 | 241 | 4.0 | 7.0 | 0.00 | 0.00 | 0.00 | 78 | 1020.8 |
| 20260509225204 | 51 | 237 | 4.0 | 7.0 | 0.00 | 0.00 | 0.00 | 78 | 1020.9 |
| 20260509225108 | 51 | 237 | 4.0 | 7.0 | 0.00 | 0.00 | 0.00 | 78 | 1020.8 |
| 20260509225018 | 51 | 240 | 4.0 | 7.0 | 0.00 | 0.00 | 0.00 | 78 | 1020.9 |
| 20260509225003 | 51 | 241 | 4.0 | 7.0 | 0.00 | 0.00 | 0.00 | 78 | 1020.8 |
| 20260509224917 | 51 | 249 | 3.0 | 7.0 | 0.00 | 0.00 | 0.00 | 78 | 1020.7 |
| 20260509224903 | 51 | 248 | 3.0 | 7.0 | 0.00 | 0.00 | 0.00 | 78 | 1020.7 |
| 20260509224603 | 51 | 238 | 4.0 | 8.0 | 0.00 | 0.00 | 0.00 | 78 | 1020.8 |
| 20260509224503 | 51 | 236 | 3.0 | 9.0 | 0.00 | 0.00 | 0.00 | 78 | 1020.5 |
| 20260509224403 | 51 | 238 | 4.0 | 11.0 | 0.00 | 0.00 | 0.00 | 78 | 1020.7 |
| 20260509224305 | 51 | 240 | 4.0 | 11.0 | 0.00 | 0.00 | 0.00 | 78 | 1020.7 |
| 20260509224206 | 51 | 239 | 4.0 | 11.0 | 0.00 | 0.00 | 0.00 | 78 | 1020.7 |
| 20260509224103 | 51 | 246 | 5.0 | 11.0 | 0.00 | 0.00 | 0.00 | 78 | 1020.6 |
| 20260509224004 | 51 | 248 | 6.0 | 11.0 | 0.00 | 0.00 | 0.00 | 78 | 1020.6 |
| 20260509223904 | 51 | 240 | 3.0 | 11.0 | 0.00 | 0.00 | 0.00 | 78 | 1020.6 |
| 20260509223804 | 51 | 245 | 4.0 | 9.0 | 0.00 | 0.00 | 0.00 | 78 | 1020.8 |
| 20260509223704 | 51 | 246 | 4.0 | 9.0 | 0.00 | 0.00 | 0.00 | 78 | 1020.6 |
| 20260509223604 | 51 | 243 | 5.0 | 9.0 | 0.00 | 0.00 | 0.00 | 78 | 1020.8 |
| 20260509223504 | 51 | 247 | 4.0 | 9.0 | 0.00 | 0.00 | 0.00 | 78 | 1020.5 |
| 20260509223407 | 51 | 256 | 4.0 | 9.0 | 0.00 | 0.00 | 0.00 | 78 | 1020.5 |
| 20260509223304 | 51 | 252 | 4.0 | 9.0 | 0.00 | 0.00 | 0.00 | 78 | 1020.5 |
| 20260509223204 | 51 | 253 | 4.0 | 9.0 | 0.00 | 0.00 | 0.00 | 78 | 1020.5 |
| 20260509223104 | 51 | 254 | 4.0 | 9.0 | 0.00 | 0.00 | 0.00 | 78 | 1020.6 |
| 20260509222904 | 51 | 250 | 5.0 | 9.0 | 0.00 | 0.00 | 0.00 | 78 | 1020.4 |
| 20260509222804 | 51 | 246 | 4.0 | 7.0 | 0.00 | 0.00 | 0.00 | 79 | 1020.6 |
| 20260509222607 | 51 | 234 | 3.0 | 8.0 | 0.00 | 0.00 | 0.00 | 79 | 1020.5 |
| 20260509222507 | 51 | 231 | 4.0 | 8.0 | 0.00 | 0.00 | 0.00 | 79 | 1020.5 |
| 20260509222404 | 51 | 231 | 2.0 | 8.0 | 0.00 | 0.00 | 0.00 | 79 | 1020.5 |
| 20260509222307 | 51 | 233 | 2.0 | 8.0 | 0.00 | 0.00 | 0.00 | 79 | 1020.5 |
| 20260509222204 | 51 | 237 | 5.0 | 8.0 | 0.00 | 0.00 | 0.00 | 79 | 1020.3 |
| 20260509222107 | 51 | 239 | 3.0 | 6.0 | 0.00 | 0.00 | 0.00 | 79 | 1020.2 |
| 20260509222004 | 51 | 241 | 3.0 | 6.0 | 0.00 | 0.00 | 0.00 | 79 | 1020.4 |
| 20260509221903 | 51 | 238 | 2.0 | 6.0 | 0.00 | 0.00 | 0.00 | 79 | 1020.4 |
| 20260509221804 | 51 | 238 | 3.0 | 6.0 | 0.00 | 0.00 | 0.00 | 79 | 1020.2 |
| 20260509221604 | 51 | 235 | 3.0 | 6.0 | 0.00 | 0.00 | 0.00 | 79 | 1020.4 |
| 20260509221504 | 51 | 233 | 2.0 | 6.0 | 0.00 | 0.00 | 0.00 | 79 | 1020.4 |
| 20260509221417 | 51 | 238 | 3.0 | 6.0 | 0.00 | 0.00 | 0.00 | 79 | 1020.5 |
| 20260509221404 | 51 | 241 | 4.0 | 6.0 | 0.00 | 0.00 | 0.00 | 79 | 1020.3 |
| 20260509221307 | 51 | 245 | 3.0 | 7.0 | 0.00 | 0.00 | 0.00 | 79 | 1020.2 |
| 20260509221104 | 51 | 252 | 4.0 | 7.0 | 0.00 | 0.00 | 0.00 | 79 | 1020.3 |
| 20260509221003 | 51 | 257 | 3.0 | 7.0 | 0.00 | 0.00 | 0.00 | 79 | 1020.4 |
| 20260509220803 | 51 | 249 | 4.0 | 7.0 | 0.00 | 0.00 | 0.00 | 79 | 1020.1 |
| 20260509220703 | 51 | 252 | 4.0 | 7.0 | 0.00 | 0.00 | 0.00 | 79 | 1020.2 |
| 20260509220603 | 51 | 244 | 4.0 | 7.0 | 0.00 | 0.00 | 0.00 | 79 | 1020.2 |
| 20260509220505 | 51 | 239 | 3.0 | 7.0 | 0.00 | 0.00 | 0.00 | 79 | 1020.2 |
| 20260509220413 | 51 | 237 | 2.0 | 9.0 | 0.00 | 0.00 | 0.00 | 79 | 1019.9 |
| 20260509220403 | 51 | 236 | 2.0 | 9.0 | 0.00 | 0.00 | 0.00 | 79 | 1019.9 |
| 20260509220304 | 51 | 231 | 2.0 | 9.0 | 0.00 | 0.00 | 0.00 | 79 | 1020.1 |
| 20260509220018 | 51 | 234 | 4.0 | 9.0 | 0.00 | 0.00 | 0.00 | 79 | 1020.3 |
| 20260509220005 | 51 | 235 | 4.0 | 9.0 | 0.00 | 0.00 | 0.00 | 79 | 1020.3 |
| 20260509215905 | 51 | 242 | 5.0 | 9.0 | 0.00 | 0.00 | 0.00 | 79 | 1020.1 |
| 20260509215713 | 51 | 246 | 5.0 | 9.0 | 0.00 | 0.00 | 0.00 | 79 | 1020.2 |
| 20260509215605 | 51 | 243 | 4.0 | 8.0 | 0.00 | 0.00 | 0.00 | 79 | 1020.2 |
| 20260509215405 | 51 | 243 | 5.0 | 8.0 | 0.00 | 0.00 | 0.00 | 79 | 1020.1 |
| 20260509215306 | 51 | 245 | 4.0 | 8.0 | 0.00 | 0.00 | 0.00 | 79 | 1019.9 |
| 20260509215105 | 51 | 247 | 4.0 | 11.0 | 0.00 | 0.00 | 0.00 | 79 | 1020.0 |
| 20260509215004 | 51 | 247 | 3.0 | 11.0 | 0.00 | 0.00 | 0.00 | 79 | 1020.1 |
| 20260509214917 | 51 | 243 | 4.0 | 11.0 | 0.00 | 0.00 | 0.00 | 79 | 1020.1 |
| 20260509214816 | 51 | 239 | 5.0 | 11.0 | 0.00 | 0.00 | 0.00 | 79 | 1020.0 |
| 20260509214804 | 51 | 237 | 5.0 | 11.0 | 0.00 | 0.00 | 0.00 | 79 | 1020.0 |
| 20260509214505 | 51 | 237 | 3.0 | 8.0 | 0.00 | 0.00 | 0.00 | 79 | 1020.1 |
| 20260509214404 | 51 | 238 | 4.0 | 8.0 | 0.00 | 0.00 | 0.00 | 79 | 1019.7 |
| 20260509214305 | 51 | 245 | 4.0 | 8.0 | 0.00 | 0.00 | 0.00 | 79 | 1019.7 |
| 20260509214205 | 51 | 251 | 2.0 | 8.0 | 0.00 | 0.00 | 0.00 | 79 | 1019.7 |
| 20260509214103 | 51 | 249 | 2.0 | 8.0 | 0.00 | 0.00 | 0.00 | 79 | 1019.7 |
| 20260509214004 | 51 | 251 | 4.0 | 8.0 | 0.00 | 0.00 | 0.00 | 79 | 1019.9 |
| 20260509213903 | 51 | 248 | 5.0 | 7.0 | 0.00 | 0.00 | 0.00 | 79 | 1019.7 |
| 20260509213804 | 51 | 237 | 2.0 | 9.0 | 0.00 | 0.00 | 0.00 | 79 | 1019.5 |
| 20260509213720 | 51 | 232 | 2.0 | 9.0 | 0.00 | 0.00 | 0.00 | 79 | 1019.6 |
| 20260509213704 | 51 | 231 | 2.0 | 9.0 | 0.00 | 0.00 | 0.00 | 79 | 1019.6 |
| 20260509213614 | 51 | 236 | 3.0 | 9.0 | 0.00 | 0.00 | 0.00 | 79 | 1019.9 |
| 20260509213607 | 51 | 239 | 3.0 | 9.0 | 0.00 | 0.00 | 0.00 | 79 | 1019.9 |
| 20260509213315 | 51 | 248 | 6.0 | 9.0 | 0.00 | 0.00 | 0.00 | 78 | 1019.6 |
| 20260509213303 | 51 | 249 | 6.0 | 9.0 | 0.00 | 0.00 | 0.00 | 78 | 1019.6 |
| 20260509213203 | 52 | 258 | 5.0 | 8.0 | 0.00 | 0.00 | 0.00 | 78 | 1019.8 |
| 20260509213004 | 52 | 251 | 4.0 | 7.0 | 0.00 | 0.00 | 0.00 | 78 | 1019.8 |
| 20260509212905 | 52 | 243 | 4.0 | 6.0 | 0.00 | 0.00 | 0.00 | 78 | 1019.8 |
| 20260509212804 | 52 | 240 | 2.0 | 11.0 | 0.00 | 0.00 | 0.00 | 78 | 1019.8 |
| 20260509212705 | 52 | 236 | 2.0 | 11.0 | 0.00 | 0.00 | 0.00 | 78 | 1019.7 |
| 20260509212605 | 52 | 236 | 3.0 | 11.0 | 0.00 | 0.00 | 0.00 | 78 | 1019.8 |
| 20260509212505 | 52 | 243 | 4.0 | 11.0 | 0.00 | 0.00 | 0.00 | 78 | 1019.8 |
| 20260509212403 | 52 | 243 | 4.0 | 11.0 | 0.00 | 0.00 | 0.00 | 78 | 1019.6 |
| 20260509212306 | 52 | 246 | 6.0 | 11.0 | 0.00 | 0.00 | 0.00 | 78 | 1019.7 |
| 20260509212205 | 52 | 257 | 4.0 | 9.0 | 0.00 | 0.00 | 0.00 | 78 | 1019.7 |
| 20260509212118 | 52 | 255 | 5.0 | 9.0 | 0.00 | 0.00 | 0.00 | 78 | 1019.7 |
| 20260509212104 | 52 | 250 | 5.0 | 9.0 | 0.00 | 0.00 | 0.00 | 78 | 1019.7 |
| 20260509212016 | 52 | 238 | 6.0 | 8.0 | 0.00 | 0.00 | 0.00 | 78 | 1019.8 |
| 20260509212004 | 52 | 235 | 6.0 | 8.0 | 0.00 | 0.00 | 0.00 | 78 | 1019.8 |
| 20260509211915 | 52 | 241 | 3.0 | 9.0 | 0.00 | 0.00 | 0.00 | 78 | 1019.8 |
| 20260509211604 | 52 | 234 | 5.0 | 9.0 | 0.00 | 0.00 | 0.00 | 78 | 1019.9 |
| 20260509211504 | 52 | 238 | 4.0 | 9.0 | 0.00 | 0.00 | 0.00 | 78 | 1019.8 |
| 20260509211405 | 52 | 234 | 4.0 | 9.0 | 0.00 | 0.00 | 0.00 | 78 | 1019.7 |
| 20260509211303 | 52 | 230 | 3.0 | 9.0 | 0.00 | 0.00 | 0.00 | 78 | 1019.7 |
| 20260509211103 | 52 | 235 | 4.0 | 9.0 | 0.00 | 0.00 | 0.00 | 78 | 1019.9 |
| 20260509211018 | 52 | 244 | 4.0 | 9.0 | 0.00 | 0.00 | 0.00 | 78 | 1019.9 |
| 20260509211003 | 52 | 246 | 4.0 | 9.0 | 0.00 | 0.00 | 0.00 | 78 | 1019.7 |
| 20260509210904 | 52 | 247 | 4.0 | 9.0 | 0.00 | 0.00 | 0.00 | 78 | 1019.5 |
| 20260509210704 | 52 | 241 | 2.0 | 9.0 | 0.00 | 0.00 | 0.00 | 78 | 1019.9 |
| 20260509210605 | 52 | 246 | 5.0 | 11.0 | 0.00 | 0.00 | 0.00 | 78 | 1019.7 |
| 20260509210505 | 52 | 230 | 5.0 | 11.0 | 0.00 | 0.00 | 0.00 | 78 | 1019.6 |
| 20260509210403 | 52 | 228 | 6.0 | 14.0 | 0.00 | 0.00 | 0.00 | 78 | 1019.8 |
| 20260509210304 | 52 | 233 | 3.0 | 14.0 | 0.00 | 0.00 | 0.00 | 78 | 1019.8 |
| 20260509210108 | 52 | 223 | 6.0 | 14.0 | 0.00 | 0.00 | 0.00 | 78 | 1020.0 |
| 20260509210004 | 52 | 221 | 7.0 | 14.0 | 0.00 | 0.00 | 0.00 | 78 | 1019.6 |
| 20260509205903 | 52 | 213 | 5.0 | 11.0 | 0.00 | 0.00 | 0.00 | 78 | 1019.8 |
| 20260509205807 | 52 | 210 | 6.0 | 11.0 | 0.00 | 0.00 | 0.00 | 78 | 1019.8 |
| 20260509205703 | 52 | 219 | 6.0 | 11.0 | 0.00 | 0.00 | 0.00 | 78 | 1019.8 |
| 20260509205603 | 52 | 214 | 5.0 | 11.0 | 0.00 | 0.00 | 0.00 | 78 | 1019.8 |
| 20260509205507 | 52 | 200 | 4.0 | 11.0 | 0.00 | 0.00 | 0.00 | 78 | 1020.0 |
| 20260509205405 | 52 | 217 | 4.0 | 11.0 | 0.00 | 0.00 | 0.00 | 78 | 1019.7 |
| 20260509205307 | 52 | 215 | 5.0 | 11.0 | 0.00 | 0.00 | 0.00 | 78 | 1019.7 |
| 20260509205203 | 52 | 211 | 6.0 | 11.0 | 0.00 | 0.00 | 0.00 | 78 | 1019.8 |
| 20260509205104 | 52 | 218 | 6.0 | 11.0 | 0.00 | 0.00 | 0.00 | 78 | 1019.8 |
| 20260509205003 | 52 | 239 | 4.0 | 9.0 | 0.00 | 0.00 | 0.00 | 78 | 1019.8 |
| 20260509204904 | 52 | 235 | 4.0 | 9.0 | 0.00 | 0.00 | 0.00 | 78 | 1019.5 |
| 20260509204812 | 52 | 236 | 4.0 | 9.0 | 0.00 | 0.00 | 0.00 | 78 | 1019.7 |
| 20260509204704 | 52 | 236 | 4.0 | 9.0 | 0.00 | 0.00 | 0.00 | 78 | 1020.0 |
| 20260509204605 | 52 | 231 | 5.0 | 9.0 | 0.00 | 0.00 | 0.00 | 78 | 1019.8 |
| 20260509204504 | 52 | 225 | 4.0 | 9.0 | 0.00 | 0.00 | 0.00 | 78 | 1019.9 |
| 20260509204404 | 52 | 223 | 7.0 | 9.0 | 0.00 | 0.00 | 0.00 | 78 | 1019.8 |
| 20260509204304 | 52 | 222 | 3.0 | 8.0 | 0.00 | 0.00 | 0.00 | 78 | 1019.7 |
| 20260509204218 | 52 | 225 | 4.0 | 8.0 | 0.00 | 0.00 | 0.00 | 78 | 1019.8 |
| 20260509204203 | 52 | 227 | 5.0 | 8.0 | 0.00 | 0.00 | 0.00 | 78 | 1019.9 |
| 20260509204105 | 52 | 241 | 4.0 | 8.0 | 0.00 | 0.00 | 0.00 | 78 | 1019.7 |
| 20260509203905 | 52 | 256 | 5.0 | 11.0 | 0.00 | 0.00 | 0.00 | 78 | 1019.8 |
| 20260509203804 | 52 | 261 | 4.0 | 13.0 | 0.00 | 0.00 | 0.00 | 78 | 1019.8 |
| 20260509203716 | 52 | 262 | 4.0 | 13.0 | 0.00 | 0.00 | 0.00 | 78 | 1019.8 |
| 20260509203704 | 52 | 266 | 4.0 | 13.0 | 0.00 | 0.00 | 0.00 | 78 | 1019.8 |
| 20260509203604 | 52 | 253 | 4.0 | 13.0 | 0.00 | 0.00 | 0.00 | 78 | 1019.6 |
| 20260509203405 | 52 | 250 | 5.0 | 13.0 | 0.00 | 0.00 | 0.00 | 79 | 1019.8 |
| 20260509203304 | 52 | 222 | 5.0 | 15.0 | 0.00 | 0.00 | 0.00 | 79 | 1020.0 |
| 20260509203204 | 52 | 208 | 6.0 | 15.0 | 0.00 | 0.00 | 0.00 | 79 | 1019.7 |
| 20260509203103 | 52 | 213 | 6.0 | 15.0 | 0.00 | 0.00 | 0.00 | 79 | 1019.8 |
| 20260509203005 | 52 | 206 | 5.0 | 15.0 | 0.00 | 0.00 | 0.00 | 79 | 1019.9 |
| 20260509202905 | 52 | 207 | 5.0 | 15.0 | 0.00 | 0.00 | 0.00 | 79 | 1019.8 |
| 20260509202803 | 52 | 220 | 8.0 | 15.0 | 0.00 | 0.00 | 0.00 | 79 | 1019.7 |
| 20260509202703 | 52 | 225 | 6.0 | 13.0 | 0.00 | 0.00 | 0.00 | 79 | 1019.7 |
| 20260509202603 | 52 | 231 | 4.0 | 13.0 | 0.00 | 0.00 | 0.00 | 79 | 1019.8 |
| 20260509202503 | 52 | 237 | 6.0 | 13.0 | 0.00 | 0.00 | 0.00 | 79 | 1019.8 |
| 20260509202408 | 52 | 233 | 7.0 | 13.0 | 0.00 | 0.00 | 0.00 | 79 | 1019.8 |
| 20260509202306 | 52 | 236 | 5.0 | 11.0 | 0.00 | 0.00 | 0.00 | 79 | 1019.7 |
| 20260509202203 | 52 | 240 | 5.0 | 16.0 | 0.00 | 0.00 | 0.00 | 79 | 1019.6 |
| 20260509202103 | 52 | 237 | 7.0 | 16.0 | 0.00 | 0.00 | 0.00 | 79 | 1019.7 |
| 20260509202003 | 52 | 238 | 5.0 | 16.0 | 0.00 | 0.00 | 0.00 | 79 | 1019.6 |
| 20260509201910 | 52 | 238 | 4.0 | 16.0 | 0.00 | 0.00 | 0.00 | 79 | 1019.5 |
| 20260509201805 | 52 | 243 | 5.0 | 16.0 | 0.00 | 0.00 | 0.00 | 79 | 1019.8 |
| 20260509201703 | 52 | 243 | 8.0 | 16.0 | 0.00 | 0.00 | 0.00 | 79 | 1019.7 |
| 20260509201603 | 52 | 243 | 7.0 | 14.0 | 0.00 | 0.00 | 0.00 | 79 | 1019.8 |
| 20260509201504 | 52 | 243 | 8.0 | 14.0 | 0.00 | 0.00 | 0.00 | 79 | 1019.8 |
| 20260509201405 | 52 | 248 | 4.0 | 14.0 | 0.00 | 0.00 | 0.00 | 80 | 1019.9 |
| 20260509201303 | 52 | 248 | 10.0 | 14.0 | 0.00 | 0.00 | 0.00 | 80 | 1019.8 |
| 20260509201203 | 52 | 241 | 6.0 | 14.0 | 0.00 | 0.00 | 0.00 | 80 | 1019.5 |
| 20260509201105 | 52 | 235 | 7.0 | 14.0 | 0.00 | 0.00 | 0.00 | 80 | 1019.7 |
| 20260509201004 | 52 | 233 | 6.0 | 14.0 | 0.00 | 0.00 | 0.00 | 80 | 1019.7 |
| 20260509200905 | 52 | 224 | 4.0 | 14.0 | 0.00 | 0.00 | 0.00 | 80 | 1019.6 |
| 20260509200803 | 52 | 218 | 4.0 | 14.0 | 0.00 | 0.00 | 0.00 | 80 | 1019.8 |
| 20260509200705 | 52 | 222 | 6.0 | 14.0 | 0.00 | 0.00 | 0.00 | 80 | 1019.8 |
| 20260509200603 | 52 | 232 | 5.0 | 16.0 | 0.00 | 0.00 | 0.00 | 80 | 1019.6 |
| 20260509200503 | 52 | 229 | 10.0 | 16.0 | 0.00 | 0.00 | 0.00 | 80 | 1019.8 |
| 20260509200405 | 52 | 234 | 9.0 | 16.0 | 0.00 | 0.00 | 0.00 | 80 | 1019.9 |
| 20260509200305 | 52 | 239 | 6.0 | 16.0 | 0.00 | 0.00 | 0.00 | 80 | 1020.0 |
| 20260509200209 | 52 | 240 | 8.0 | 16.0 | 0.00 | 0.00 | 0.00 | 80 | 1019.9 |
| 20260509200120 | 52 | 239 | 5.0 | 14.0 | 0.00 | 0.00 | 0.00 | 80 | 1019.8 |
| 20260509200103 | 52 | 240 | 5.0 | 14.0 | 0.00 | 0.00 | 0.00 | 80 | 1019.8 |
| 20260509200004 | 52 | 243 | 5.0 | 14.0 | 0.00 | 0.00 | 0.00 | 80 | 1019.8 |
| 20260509195806 | 52 | 244 | 6.0 | 15.0 | 0.00 | 0.00 | 0.00 | 80 | 1019.7 |
| 20260509195704 | 52 | 247 | 3.0 | 15.0 | 0.00 | 0.00 | 0.00 | 81 | 1019.7 |
| 20260509195604 | 52 | 247 | 7.0 | 15.0 | 0.00 | 0.00 | 0.00 | 80 | 1019.8 |
| 20260509195504 | 52 | 247 | 9.0 | 15.0 | 0.00 | 0.00 | 0.00 | 80 | 1019.7 |
| 20260509195405 | 52 | 248 | 7.0 | 14.0 | 0.00 | 0.00 | 0.00 | 80 | 1019.8 |
| 20260509195306 | 52 | 255 | 5.0 | 11.0 | 0.00 | 0.00 | 0.00 | 80 | 1019.7 |
| 20260509195204 | 52 | 249 | 4.0 | 11.0 | 0.00 | 0.00 | 0.00 | 80 | 1019.8 |
| 20260509195104 | 52 | 242 | 5.0 | 11.0 | 0.00 | 0.00 | 0.00 | 80 | 1019.7 |
| 20260509195004 | 52 | 234 | 4.0 | 11.0 | 0.00 | 0.00 | 0.00 | 80 | 1020.0 |
| 20260509194904 | 52 | 235 | 4.0 | 11.0 | 0.00 | 0.00 | 0.00 | 80 | 1019.7 |
| 20260509194817 | 52 | 230 | 5.0 | 11.0 | 0.00 | 0.00 | 0.00 | 80 | 1019.5 |
| 20260509194703 | 52 | 228 | 8.0 | 11.0 | 0.00 | 0.00 | 0.00 | 80 | 1019.5 |
| 20260509194504 | 52 | 251 | 6.0 | 11.0 | 0.00 | 0.00 | 0.00 | 80 | 1019.8 |
| 20260509194405 | 52 | 248 | 4.0 | 9.0 | 0.00 | 0.00 | 0.00 | 80 | 1019.6 |
| 20260509194307 | 52 | 237 | 4.0 | 11.0 | 0.00 | 0.00 | 0.00 | 80 | 1019.6 |
| 20260509194203 | 51 | 236 | 4.0 | 13.0 | 0.00 | 0.00 | 0.00 | 81 | 1019.9 |
| 20260509194104 | 51 | 232 | 4.0 | 13.0 | 0.00 | 0.00 | 0.00 | 81 | 1020.0 |
| 20260509194003 | 51 | 228 | 7.0 | 14.0 | 0.00 | 0.00 | 0.00 | 81 | 1019.6 |
| 20260509193904 | 51 | 225 | 4.0 | 14.0 | 0.00 | 0.00 | 0.00 | 81 | 1019.8 |
| 20260509193807 | 51 | 238 | 8.0 | 14.0 | 0.00 | 0.00 | 0.00 | 81 | 1019.9 |
| 20260509193604 | 51 | 250 | 4.0 | 14.0 | 0.00 | 0.00 | 0.00 | 81 | 1019.9 |
| 20260509193503 | 51 | 257 | 7.0 | 14.0 | 0.00 | 0.00 | 0.00 | 81 | 1019.7 |
| 20260509193405 | 51 | 260 | 6.0 | 13.0 | 0.00 | 0.00 | 0.00 | 81 | 1019.7 |
| 20260509193304 | 51 | 249 | 3.0 | 13.0 | 0.00 | 0.00 | 0.00 | 81 | 1019.9 |
| 20260509193204 | 51 | 243 | 4.0 | 13.0 | 0.00 | 0.00 | 0.00 | 82 | 1019.8 |
| 20260509193104 | 51 | 240 | 5.0 | 13.0 | 0.00 | 0.00 | 0.00 | 82 | 1019.7 |
| 20260509193006 | 51 | 239 | 9.0 | 13.0 | 0.00 | 0.00 | 0.00 | 81 | 1019.9 |
| 20260509192915 | 51 | 238 | 4.0 | 13.0 | 0.00 | 0.00 | 0.00 | 82 | 1019.8 |
| 20260509192905 | 51 | 240 | 4.0 | 13.0 | 0.00 | 0.00 | 0.00 | 82 | 1019.8 |
| 20260509192803 | 51 | 237 | 6.0 | 13.0 | 0.00 | 0.00 | 0.00 | 82 | 1020.0 |
| 20260509192616 | 51 | 240 | 5.0 | 14.0 | 0.00 | 0.00 | 0.00 | 81 | 1020.1 |
| 20260509192603 | 51 | 240 | 7.0 | 14.0 | 0.00 | 0.00 | 0.00 | 81 | 1020.1 |
| 20260509192503 | 51 | 229 | 4.0 | 14.0 | 0.00 | 0.00 | 0.00 | 81 | 1019.9 |
| 20260509192306 | 51 | 236 | 4.0 | 14.0 | 0.00 | 0.00 | 0.00 | 81 | 1019.8 |
| 20260509192205 | 51 | 237 | 7.0 | 14.0 | 0.00 | 0.00 | 0.00 | 81 | 1019.9 |
| 20260509192104 | 51 | 242 | 6.0 | 13.0 | 0.00 | 0.00 | 0.00 | 80 | 1019.9 |
| 20260509192005 | 52 | 258 | 4.0 | 13.0 | 0.00 | 0.00 | 0.00 | 80 | 1019.8 |
| 20260509191903 | 52 | 265 | 7.0 | 13.0 | 0.00 | 0.00 | 0.00 | 79 | 1019.9 |
| 20260509191805 | 52 | 260 | 8.0 | 13.0 | 0.00 | 0.00 | 0.00 | 78 | 1020.1 |
| 20260509191703 | 52 | 259 | 5.0 | 11.0 | 0.00 | 0.00 | 0.00 | 78 | 1019.9 |
| 20260509191604 | 52 | 251 | 4.0 | 11.0 | 0.00 | 0.00 | 0.00 | 78 | 1019.8 |
| 20260509191505 | 52 | 244 | 6.0 | 13.0 | 0.00 | 0.00 | 0.00 | 78 | 1019.5 |
| 20260509191403 | 52 | 240 | 5.0 | 13.0 | 0.00 | 0.00 | 0.00 | 78 | 1019.7 |
| 20260509191305 | 52 | 246 | 7.0 | 13.0 | 0.00 | 0.00 | 0.00 | 77 | 1019.7 |
| 20260509191205 | 52 | 253 | 5.0 | 13.0 | 0.00 | 0.00 | 0.00 | 78 | 1019.7 |
| 20260509191105 | 52 | 251 | 5.0 | 13.0 | 0.00 | 0.00 | 0.00 | 78 | 1019.7 |
| 20260509191004 | 52 | 260 | 5.0 | 13.0 | 0.00 | 0.00 | 0.00 | 78 | 1019.6 |
| 20260509190903 | 52 | 256 | 8.0 | 13.0 | 0.00 | 0.00 | 0.00 | 78 | 1019.8 |
| 20260509190804 | 52 | 251 | 5.0 | 13.0 | 0.00 | 0.00 | 0.00 | 78 | 1019.6 |
| 20260509190704 | 52 | 242 | 6.0 | 14.0 | 0.00 | 0.00 | 0.00 | 78 | 1019.8 |
| 20260509190604 | 52 | 260 | 4.0 | 14.0 | 0.00 | 0.00 | 0.00 | 78 | 1019.7 |
| 20260509190505 | 52 | 250 | 9.0 | 14.0 | 0.00 | 0.00 | 0.00 | 78 | 1019.8 |
| 20260509190403 | 52 | 238 | 6.0 | 14.0 | 0.00 | 0.00 | 0.00 | 78 | 1019.9 |
| 20260509190304 | 52 | 237 | 5.0 | 14.0 | 0.00 | 0.00 | 0.00 | 78 | 1019.7 |
| 20260509190204 | 52 | 230 | 8.0 | 13.0 | 0.00 | 0.00 | 0.00 | 78 | 1019.8 |
| 20260509190106 | 52 | 223 | 4.0 | 14.0 | 0.00 | 0.00 | 0.00 | 78 | 1019.7 |
| 20260509190005 | 52 | 222 | 4.0 | 14.0 | 0.00 | 0.00 | 0.00 | 78 | 1019.7 |
| 20260509185904 | 52 | 219 | 8.0 | 14.0 | 0.00 | 0.00 | 0.00 | 78 | 1019.7 |
| 20260509185817 | 52 | 211 | 8.0 | 14.0 | 0.00 | 0.00 | 0.00 | 78 | 1020.0 |
| 20260509185804 | 52 | 215 | 6.0 | 14.0 | 0.00 | 0.00 | 0.00 | 77 | 1019.6 |